| time (UTC) | temp C | wind direction | speed KPH | gust KPH | rain 1hr cm | rain 24hr cm | rain mn cm | humidity % | barometer mb |
| 20260510220902 | 30 | 111 | 17.7 | 25.7 | 0.00 | 0.00 | 0.00 | 67 | 1010.9 |
| 20260510220803 | 30 | 110 | 16.1 | 25.7 | 0.00 | 0.00 | 0.00 | 66 | 1010.8 |
| 20260510220702 | 30 | 103 | 16.1 | 25.7 | 0.00 | 0.00 | 0.00 | 66 | 1010.8 |
| 20260510220601 | 30 | 106 | 12.9 | 25.7 | 0.00 | 0.00 | 0.00 | 67 | 1010.9 |
| 20260510220503 | 30 | 106 | 12.9 | 25.7 | 0.00 | 0.00 | 0.00 | 66 | 1010.9 |
| 20260510220403 | 30 | 107 | 16.1 | 27.4 | 0.00 | 0.00 | 0.00 | 66 | 1010.9 |
| 20260510220303 | 31 | 107 | 19.3 | 27.4 | 0.00 | 0.00 | 0.00 | 65 | 1011.0 |
| 20260510220202 | 31 | 99 | 17.7 | 27.4 | 0.00 | 0.00 | 0.00 | 65 | 1010.9 |
| 20260510220002 | 31 | 107 | 8.0 | 27.4 | 0.00 | 0.00 | 0.00 | 67 | 1011.0 |
| 20260510215903 | 30 | 131 | 9.7 | 27.4 | 0.00 | 0.00 | 0.00 | 67 | 1010.9 |
| 20260510215803 | 30 | 107 | 14.5 | 27.4 | 0.00 | 0.00 | 0.00 | 67 | 1011.0 |
| 20260510215702 | 31 | 80 | 16.1 | 30.6 | 0.00 | 0.00 | 0.00 | 66 | 1011.0 |
| 20260510215602 | 31 | 86 | 17.7 | 30.6 | 0.00 | 0.00 | 0.00 | 66 | 1011.0 |
| 20260510215502 | 31 | 89 | 16.1 | 30.6 | 0.00 | 0.00 | 0.00 | 66 | 1011.0 |
| 20260510215404 | 31 | 110 | 14.5 | 30.6 | 0.00 | 0.00 | 0.00 | 67 | 1011.0 |
| 20260510215306 | 31 | 104 | 12.9 | 30.6 | 0.00 | 0.00 | 0.00 | 67 | 1011.0 |
| 20260510215202 | 30 | 145 | 11.3 | 30.6 | 0.00 | 0.00 | 0.00 | 67 | 1011.0 |
| 20260510215103 | 30 | 175 | 12.9 | 30.6 | 0.00 | 0.00 | 0.00 | 67 | 1011.0 |
| 20260510215003 | 30 | 118 | 17.7 | 30.6 | 0.00 | 0.00 | 0.00 | 66 | 1011.0 |
| 20260510214901 | 31 | 117 | 22.5 | 30.6 | 0.00 | 0.00 | 0.00 | 66 | 1011.0 |
| 20260510214802 | 31 | 124 | 20.9 | 30.6 | 0.00 | 0.00 | 0.00 | 66 | 1011.1 |
| 20260510214704 | 31 | 124 | 17.7 | 27.4 | 0.00 | 0.00 | 0.00 | 67 | 1011.0 |
| 20260510214602 | 31 | 90 | 16.1 | 25.7 | 0.00 | 0.00 | 0.00 | 66 | 1011.1 |
| 20260510214501 | 31 | 109 | 16.1 | 24.1 | 0.00 | 0.00 | 0.00 | 66 | 1011.0 |
| 20260510214403 | 31 | 120 | 14.5 | 24.1 | 0.00 | 0.00 | 0.00 | 66 | 1011.1 |
| 20260510214302 | 31 | 124 | 14.5 | 24.1 | 0.00 | 0.00 | 0.00 | 66 | 1011.1 |
| 20260510214203 | 31 | 86 | 14.5 | 24.1 | 0.00 | 0.00 | 0.00 | 66 | 1011.0 |
| 20260510214104 | 31 | 85 | 16.1 | 24.1 | 0.00 | 0.00 | 0.00 | 66 | 1011.1 |
| 20260510214003 | 31 | 102 | 17.7 | 24.1 | 0.00 | 0.00 | 0.00 | 66 | 1011.1 |
| 20260510213902 | 31 | 107 | 14.5 | 25.7 | 0.00 | 0.00 | 0.00 | 66 | 1011.0 |
| 20260510213802 | 31 | 109 | 11.3 | 25.7 | 0.00 | 0.00 | 0.00 | 67 | 1011.1 |
| 20260510213701 | 31 | 109 | 12.9 | 25.7 | 0.00 | 0.00 | 0.00 | 67 | 1011.1 |
| 20260510213603 | 31 | 141 | 16.1 | 25.7 | 0.00 | 0.00 | 0.00 | 66 | 1011.1 |
| 20260510213502 | 31 | 107 | 12.9 | 25.7 | 0.00 | 0.00 | 0.00 | 66 | 1011.0 |
| 20260510213403 | 31 | 104 | 9.7 | 25.7 | 0.00 | 0.00 | 0.00 | 66 | 1011.1 |
| 20260510213302 | 31 | 142 | 8.0 | 25.7 | 0.00 | 0.00 | 0.00 | 67 | 1011.0 |
| 20260510213202 | 31 | 130 | 14.5 | 25.7 | 0.00 | 0.00 | 0.00 | 67 | 1011.1 |
| 20260510213101 | 31 | 110 | 19.3 | 25.7 | 0.00 | 0.00 | 0.00 | 66 | 1011.1 |
| 20260510213004 | 31 | 114 | 19.3 | 25.7 | 0.00 | 0.00 | 0.00 | 66 | 1011.1 |
| 20260510212901 | 31 | 114 | 17.7 | 25.7 | 0.00 | 0.00 | 0.00 | 66 | 1011.2 |
| 20260510212801 | 31 | 117 | 17.7 | 25.7 | 0.00 | 0.00 | 0.00 | 66 | 1011.1 |
| 20260510212703 | 31 | 117 | 17.7 | 25.7 | 0.00 | 0.00 | 0.00 | 66 | 1011.1 |
| 20260510212603 | 31 | 97 | 16.1 | 25.7 | 0.00 | 0.00 | 0.00 | 67 | 1011.1 |
| 20260510212502 | 31 | 120 | 14.5 | 25.7 | 0.00 | 0.00 | 0.00 | 66 | 1011.1 |
| 20260510212404 | 31 | 106 | 14.5 | 25.7 | 0.00 | 0.00 | 0.00 | 66 | 1011.1 |
| 20260510212306 | 31 | 134 | 12.9 | 25.7 | 0.00 | 0.00 | 0.00 | 67 | 1011.1 |
| 20260510212201 | 31 | 85 | 14.5 | 25.7 | 0.00 | 0.00 | 0.00 | 66 | 1011.1 |
| 20260510212100 | 31 | 87 | 19.3 | 25.7 | 0.00 | 0.00 | 0.00 | 67 | 1011.1 |
| 20260510211959 | 31 | 89 | 17.7 | 25.7 | 0.00 | 0.00 | 0.00 | 67 | 1011.1 |
| 20260510211859 | 31 | 102 | 14.5 | 25.7 | 0.00 | 0.00 | 0.00 | 67 | 1011.1 |
| 20260510211758 | 31 | 103 | 14.5 | 25.7 | 0.00 | 0.00 | 0.00 | 66 | 1011.1 |
| 20260510211658 | 31 | 111 | 16.1 | 25.7 | 0.00 | 0.00 | 0.00 | 66 | 1011.0 |
| 20260510211600 | 31 | 111 | 17.7 | 25.7 | 0.00 | 0.00 | 0.00 | 66 | 1011.1 |
| 20260510211459 | 31 | 93 | 17.7 | 25.7 | 0.00 | 0.00 | 0.00 | 66 | 1011.2 |
| 20260510211359 | 31 | 121 | 17.7 | 25.7 | 0.00 | 0.00 | 0.00 | 66 | 1011.1 |
| 20260510211258 | 31 | 100 | 14.5 | 24.1 | 0.00 | 0.00 | 0.00 | 66 | 1011.1 |
| 20260510211158 | 31 | 116 | 14.5 | 27.4 | 0.00 | 0.00 | 0.00 | 66 | 1011.1 |
| 20260510211059 | 31 | 117 | 14.5 | 27.4 | 0.00 | 0.00 | 0.00 | 66 | 1011.1 |
| 20260510210959 | 31 | 111 | 14.5 | 27.4 | 0.00 | 0.00 | 0.00 | 67 | 1011.1 |
| 20260510210858 | 31 | 83 | 11.3 | 27.4 | 0.00 | 0.00 | 0.00 | 67 | 1011.1 |
| 20260510210758 | 31 | 90 | 9.7 | 27.4 | 0.00 | 0.00 | 0.00 | 67 | 1011.1 |
| 20260510210700 | 31 | 127 | 12.9 | 27.4 | 0.00 | 0.00 | 0.00 | 66 | 1011.1 |
| 20260510210558 | 31 | 111 | 12.9 | 27.4 | 0.00 | 0.00 | 0.00 | 65 | 1011.2 |
| 20260510210458 | 31 | 114 | 14.5 | 27.4 | 0.00 | 0.00 | 0.00 | 66 | 1011.2 |
| 20260510210359 | 31 | 124 | 17.7 | 27.4 | 0.00 | 0.00 | 0.00 | 65 | 1011.1 |
| 20260510210259 | 31 | 117 | 19.3 | 27.4 | 0.00 | 0.00 | 0.00 | 66 | 1011.1 |
| 20260510210159 | 31 | 118 | 19.3 | 27.4 | 0.00 | 0.00 | 0.00 | 66 | 1011.1 |
| 20260510210059 | 31 | 127 | 14.5 | 27.4 | 0.00 | 0.00 | 0.00 | 67 | 1011.2 |
| 20260510210000 | 31 | 135 | 11.3 | 27.4 | 0.00 | 0.00 | 0.00 | 66 | 1011.1 |
| 20260510205858 | 31 | 83 | 14.5 | 27.4 | 0.00 | 0.00 | 0.00 | 66 | 1011.1 |
| 20260510205758 | 31 | 89 | 17.7 | 27.4 | 0.00 | 0.00 | 0.00 | 66 | 1011.1 |
| 20260510205657 | 31 | 83 | 17.7 | 27.4 | 0.00 | 0.00 | 0.00 | 66 | 1011.0 |
| 20260510205554 | 31 | 75 | 19.3 | 27.4 | 0.00 | 0.00 | 0.00 | 66 | 1011.1 |
| 20260510205452 | 31 | 82 | 20.9 | 27.4 | 0.00 | 0.00 | 0.00 | 66 | 1011.1 |
| 20260510205350 | 32 | 114 | 17.7 | 25.7 | 0.00 | 0.00 | 0.00 | 66 | 1011.1 |
| 20260510205249 | 32 | 116 | 17.7 | 25.7 | 0.00 | 0.00 | 0.00 | 66 | 1011.1 |
| 20260510205148 | 32 | 130 | 17.7 | 25.7 | 0.00 | 0.00 | 0.00 | 66 | 1011.1 |
| 20260510205047 | 32 | 100 | 14.5 | 25.7 | 0.00 | 0.00 | 0.00 | 66 | 1011.1 |
| 20260510204946 | 32 | 106 | 11.3 | 25.7 | 0.00 | 0.00 | 0.00 | 66 | 1011.1 |
| 20260510204845 | 32 | 87 | 6.4 | 25.7 | 0.00 | 0.00 | 0.00 | 66 | 1011.0 |
| 20260510204742 | 32 | 75 | 6.4 | 25.7 | 0.00 | 0.00 | 0.00 | 66 | 1011.0 |
| 20260510204641 | 32 | 141 | 12.9 | 25.7 | 0.00 | 0.00 | 0.00 | 66 | 1011.1 |
| 20260510204539 | 32 | 102 | 14.5 | 25.7 | 0.00 | 0.00 | 0.00 | 67 | 1011.0 |
| 20260510204437 | 32 | 80 | 11.3 | 25.7 | 0.00 | 0.00 | 0.00 | 66 | 1011.0 |
| 20260510204337 | 32 | 93 | 9.7 | 22.5 | 0.00 | 0.00 | 0.00 | 66 | 1011.0 |
| 20260510204236 | 32 | 97 | 8.0 | 22.5 | 0.00 | 0.00 | 0.00 | 67 | 1011.0 |
| 20260510204136 | 31 | 193 | 9.7 | 22.5 | 0.00 | 0.00 | 0.00 | 67 | 1011.0 |
| 20260510204035 | 31 | 125 | 11.3 | 22.5 | 0.00 | 0.00 | 0.00 | 67 | 1011.0 |
| 20260510203934 | 31 | 300 | 9.7 | 22.5 | 0.00 | 0.00 | 0.00 | 68 | 1011.0 |
| 20260510203833 | 31 | 76 | 14.5 | 22.5 | 0.00 | 0.00 | 0.00 | 68 | 1010.9 |
| 20260510203731 | 31 | 116 | 17.7 | 22.5 | 0.00 | 0.00 | 0.00 | 68 | 1010.9 |
| 20260510203631 | 31 | 134 | 14.5 | 22.5 | 0.00 | 0.00 | 0.00 | 68 | 1011.0 |
| 20260510203534 | 31 | 104 | 12.9 | 20.9 | 0.00 | 0.00 | 0.00 | 70 | 1010.9 |
| 20260510203432 | 31 | 114 | 16.1 | 24.1 | 0.00 | 0.00 | 0.00 | 69 | 1011.0 |
| 20260510203331 | 31 | 96 | 12.9 | 24.1 | 0.00 | 0.00 | 0.00 | 69 | 1011.0 |
| 20260510203231 | 30 | 93 | 9.7 | 24.1 | 0.00 | 0.00 | 0.00 | 69 | 1010.9 |
| 20260510203133 | 31 | 117 | 11.3 | 24.1 | 0.00 | 0.00 | 0.00 | 68 | 1010.9 |
| 20260510203031 | 31 | 93 | 14.5 | 24.1 | 0.00 | 0.00 | 0.00 | 68 | 1011.0 |
| 20260510202931 | 31 | 107 | 14.5 | 24.1 | 0.00 | 0.00 | 0.00 | 68 | 1011.0 |
| 20260510202832 | 31 | 94 | 14.5 | 24.1 | 0.00 | 0.00 | 0.00 | 67 | 1010.9 |
| 20260510202731 | 31 | 109 | 16.1 | 24.1 | 0.00 | 0.00 | 0.00 | 67 | 1010.9 |
| 20260510202631 | 31 | 117 | 14.5 | 24.1 | 0.00 | 0.00 | 0.00 | 67 | 1010.9 |
| 20260510202531 | 31 | 124 | 14.5 | 24.1 | 0.00 | 0.00 | 0.00 | 67 | 1010.9 |
| 20260510202432 | 31 | 96 | 11.3 | 24.1 | 0.00 | 0.00 | 0.00 | 67 | 1010.8 |
| 20260510202331 | 31 | 94 | 9.7 | 19.3 | 0.00 | 0.00 | 0.00 | 67 | 1010.8 |
| 20260510202231 | 31 | 133 | 8.0 | 19.3 | 0.00 | 0.00 | 0.00 | 67 | 1010.8 |
| 20260510202132 | 31 | 106 | 6.4 | 19.3 | 0.00 | 0.00 | 0.00 | 67 | 1010.8 |
| 20260510202032 | 31 | 79 | 8.0 | 19.3 | 0.00 | 0.00 | 0.00 | 67 | 1010.8 |
| 20260510201930 | 31 | 131 | 8.0 | 20.9 | 0.00 | 0.00 | 0.00 | 66 | 1010.8 |
| 20260510201827 | 31 | 109 | 9.7 | 20.9 | 0.00 | 0.00 | 0.00 | 66 | 1010.8 |
| 20260510201727 | 31 | 97 | 11.3 | 20.9 | 0.00 | 0.00 | 0.00 | 65 | 1010.8 |
| 20260510201626 | 31 | 103 | 12.9 | 20.9 | 0.00 | 0.00 | 0.00 | 65 | 1010.9 |
| 20260510201523 | 31 | 78 | 14.5 | 20.9 | 0.00 | 0.00 | 0.00 | 64 | 1010.8 |
| 20260510201423 | 32 | 121 | 14.5 | 20.9 | 0.00 | 0.00 | 0.00 | 64 | 1010.8 |
| 20260510201320 | 32 | 114 | 14.5 | 20.9 | 0.00 | 0.00 | 0.00 | 64 | 1010.7 |
| 20260510201218 | 32 | 130 | 14.5 | 20.9 | 0.00 | 0.00 | 0.00 | 64 | 1010.7 |
| 20260510201117 | 32 | 113 | 14.5 | 20.9 | 0.00 | 0.00 | 0.00 | 64 | 1010.7 |
| 20260510201017 | 32 | 107 | 11.3 | 20.9 | 0.00 | 0.00 | 0.00 | 64 | 1010.8 |
| 20260510200914 | 32 | 106 | 6.4 | 20.9 | 0.00 | 0.00 | 0.00 | 63 | 1010.7 |
| 20260510200813 | 32 | 117 | 8.0 | 20.9 | 0.00 | 0.00 | 0.00 | 63 | 1010.6 |
| 20260510200711 | 32 | 123 | 8.0 | 20.9 | 0.00 | 0.00 | 0.00 | 63 | 1010.6 |
| 20260510200611 | 32 | 117 | 6.4 | 20.9 | 0.00 | 0.00 | 0.00 | 63 | 1010.6 |
| 20260510200508 | 32 | 104 | 4.8 | 20.9 | 0.00 | 0.00 | 0.00 | 64 | 1010.7 |
| 20260510200407 | 32 | 117 | 4.8 | 20.9 | 0.00 | 0.00 | 0.00 | 64 | 1010.6 |
| 20260510200306 | 32 | 159 | 6.4 | 20.9 | 0.00 | 0.00 | 0.00 | 63 | 1010.6 |
| 20260510200203 | 32 | 159 | 9.7 | 20.9 | 0.00 | 0.00 | 0.00 | 63 | 1010.6 |
| 20260510200003 | 32 | 110 | 11.3 | 20.9 | 0.00 | 0.00 | 0.00 | 63 | 1010.7 |
| 20260510195902 | 32 | 110 | 9.7 | 22.5 | 0.00 | 0.00 | 0.00 | 63 | 1010.7 |
| 20260510195800 | 32 | 120 | 8.0 | 22.5 | 0.00 | 0.00 | 0.00 | 64 | 1010.7 |
| 20260510195657 | 32 | 127 | 9.7 | 22.5 | 0.00 | 0.00 | 0.00 | 64 | 1010.7 |
| 20260510195556 | 32 | 97 | 11.3 | 22.5 | 0.00 | 0.00 | 0.00 | 63 | 1010.6 |
| 20260510195459 | 32 | 114 | 9.7 | 22.5 | 0.00 | 0.00 | 0.00 | 63 | 1010.6 |
| 20260510195358 | 32 | 100 | 6.4 | 22.5 | 0.00 | 0.00 | 0.00 | 63 | 1010.7 |
| 20260510195256 | 32 | 103 | 6.4 | 22.5 | 0.00 | 0.00 | 0.00 | 62 | 1010.7 |
| 20260510195156 | 32 | 118 | 9.7 | 22.5 | 0.00 | 0.00 | 0.00 | 61 | 1010.7 |
| 20260510195057 | 32 | 100 | 14.5 | 22.5 | 0.00 | 0.00 | 0.00 | 60 | 1010.7 |
| 20260510194956 | 32 | 114 | 16.1 | 22.5 | 0.00 | 0.00 | 0.00 | 59 | 1010.7 |
| 20260510194857 | 33 | 127 | 14.5 | 20.9 | 0.00 | 0.00 | 0.00 | 59 | 1010.7 |
| 20260510194757 | 33 | 127 | 11.3 | 20.9 | 0.00 | 0.00 | 0.00 | 60 | 1010.6 |
| 20260510194657 | 33 | 102 | 6.4 | 19.3 | 0.00 | 0.00 | 0.00 | 60 | 1010.7 |
| 20260510194556 | 33 | 162 | 4.8 | 19.3 | 0.00 | 0.00 | 0.00 | 61 | 1010.6 |
| 20260510194456 | 33 | 114 | 6.4 | 19.3 | 0.00 | 0.00 | 0.00 | 61 | 1010.6 |
| 20260510194357 | 33 | 224 | 4.8 | 19.3 | 0.00 | 0.00 | 0.00 | 62 | 1010.6 |
| 20260510194343 | 33 | 114 | 11.3 | 20.9 | 0.00 | 0.00 | 0.00 | 61 | 1010.6 |
| 20260510194320 | 32 | 117 | 4.8 | 19.3 | 0.00 | 0.00 | 0.00 | 61 | 1010.6 |
| 20260510194253 | 32 | 85 | 8.0 | 20.9 | 0.00 | 0.00 | 0.00 | 60 | 1010.6 |
| 20260510194228 | 32 | 94 | 9.7 | 20.9 | 0.00 | 0.00 | 0.00 | 60 | 1010.6 |
| 20260510193856 | 33 | 123 | 8.0 | 20.9 | 0.00 | 0.00 | 0.00 | 63 | 1010.6 |
| 20260510193757 | 32 | 68 | 8.0 | 20.9 | 0.00 | 0.00 | 0.00 | 62 | 1010.6 |
| 20260510193657 | 32 | 102 | 11.3 | 20.9 | 0.00 | 0.00 | 0.00 | 64 | 1010.6 |
| 20260510193557 | 32 | 185 | 8.0 | 22.5 | 0.00 | 0.00 | 0.00 | 63 | 1010.6 |
| 20260510193457 | 32 | 161 | 6.4 | 22.5 | 0.00 | 0.00 | 0.00 | 63 | 1010.5 |
| 20260510193357 | 32 | 100 | 9.7 | 22.5 | 0.00 | 0.00 | 0.00 | 63 | 1010.6 |
| 20260510193256 | 32 | 121 | 9.7 | 22.5 | 0.00 | 0.00 | 0.00 | 65 | 1010.6 |
| 20260510193156 | 32 | 117 | 9.7 | 22.5 | 0.00 | 0.00 | 0.00 | 65 | 1010.6 |
| 20260510193056 | 31 | 175 | 12.9 | 22.5 | 0.00 | 0.00 | 0.00 | 64 | 1010.5 |
| 20260510192959 | 32 | 104 | 14.5 | 22.5 | 0.00 | 0.00 | 0.00 | 65 | 1010.5 |
| 20260510192856 | 32 | 116 | 11.3 | 22.5 | 0.00 | 0.00 | 0.00 | 64 | 1010.6 |
| 20260510192756 | 32 | 49 | 12.9 | 22.5 | 0.00 | 0.00 | 0.00 | 65 | 1010.6 |
| 20260510192656 | 32 | 100 | 14.5 | 22.5 | 0.00 | 0.00 | 0.00 | 65 | 1010.6 |
| 20260510192557 | 31 | 111 | 12.9 | 20.9 | 0.00 | 0.00 | 0.00 | 66 | 1010.6 |
| 20260510192456 | 31 | 130 | 14.5 | 24.1 | 0.00 | 0.00 | 0.00 | 66 | 1010.6 |
| 20260510192356 | 31 | 125 | 12.9 | 24.1 | 0.00 | 0.00 | 0.00 | 67 | 1010.6 |
| 20260510192257 | 31 | 86 | 8.0 | 24.1 | 0.00 | 0.00 | 0.00 | 66 | 1010.6 |
| 20260510192157 | 31 | 120 | 8.0 | 24.1 | 0.00 | 0.00 | 0.00 | 65 | 1010.6 |
| 20260510192056 | 31 | 110 | 8.0 | 24.1 | 0.00 | 0.00 | 0.00 | 65 | 1010.6 |
| 20260510191957 | 31 | 158 | 9.7 | 24.1 | 0.00 | 0.00 | 0.00 | 65 | 1010.6 |
| 20260510191857 | 31 | 154 | 8.0 | 24.1 | 0.00 | 0.00 | 0.00 | 65 | 1010.5 |
| 20260510191756 | 31 | 120 | 9.7 | 24.1 | 0.00 | 0.00 | 0.00 | 65 | 1010.6 |
| 20260510191657 | 32 | 164 | 11.3 | 24.1 | 0.00 | 0.00 | 0.00 | 65 | 1010.6 |
| 20260510191558 | 32 | 107 | 11.3 | 24.1 | 0.00 | 0.00 | 0.00 | 64 | 1010.5 |
| 20260510191456 | 32 | 89 | 9.7 | 24.1 | 0.00 | 0.00 | 0.00 | 63 | 1010.6 |
| 20260510191356 | 32 | 110 | 9.7 | 24.1 | 0.00 | 0.00 | 0.00 | 63 | 1010.5 |
| 20260510191257 | 32 | 164 | 9.7 | 24.1 | 0.00 | 0.00 | 0.00 | 64 | 1010.5 |
| 20260510191156 | 32 | 83 | 9.7 | 24.1 | 0.00 | 0.00 | 0.00 | 63 | 1010.5 |
| 20260510191055 | 32 | 203 | 9.7 | 24.1 | 0.00 | 0.00 | 0.00 | 63 | 1010.5 |
| 20260510190955 | 32 | 202 | 12.9 | 24.1 | 0.00 | 0.00 | 0.00 | 63 | 1010.6 |
| 20260510190857 | 32 | 96 | 9.7 | 24.1 | 0.00 | 0.00 | 0.00 | 65 | 1010.5 |
| 20260510190755 | 32 | 96 | 8.0 | 19.3 | 0.00 | 0.00 | 0.00 | 66 | 1010.5 |
| 20260510190655 | 32 | 54 | 9.7 | 19.3 | 0.00 | 0.00 | 0.00 | 65 | 1010.6 |
| 20260510190557 | 32 | 151 | 11.3 | 22.5 | 0.00 | 0.00 | 0.00 | 65 | 1010.6 |
| 20260510190455 | 32 | 147 | 9.7 | 22.5 | 0.00 | 0.00 | 0.00 | 64 | 1010.5 |
| 20260510190356 | 32 | 94 | 9.7 | 22.5 | 0.00 | 0.00 | 0.00 | 65 | 1010.7 |
| 20260510190255 | 32 | 111 | 9.7 | 22.5 | 0.00 | 0.00 | 0.00 | 64 | 1010.6 |
| 20260510190157 | 32 | 100 | 8.0 | 22.5 | 0.00 | 0.00 | 0.00 | 64 | 1010.6 |
| 20260510190055 | 32 | 183 | 9.7 | 22.5 | 0.00 | 0.00 | 0.00 | 64 | 1010.8 |
| 20260510185955 | 32 | 168 | 9.7 | 22.5 | 0.00 | 0.00 | 0.00 | 65 | 1010.8 |
| 20260510185856 | 31 | 188 | 12.9 | 22.5 | 0.00 | 0.00 | 0.00 | 65 | 1010.8 |
| 20260510185756 | 31 | 109 | 12.9 | 22.5 | 0.00 | 0.00 | 0.00 | 66 | 1010.8 |
| 20260510185655 | 31 | 107 | 11.3 | 22.5 | 0.00 | 0.00 | 0.00 | 66 | 1010.8 |
| 20260510185556 | 31 | 144 | 9.7 | 20.9 | 0.00 | 0.00 | 0.00 | 66 | 1010.8 |
| 20260510185456 | 31 | 142 | 11.3 | 20.9 | 0.00 | 0.00 | 0.00 | 67 | 1010.8 |
| 20260510185355 | 31 | 130 | 8.0 | 20.9 | 0.00 | 0.00 | 0.00 | 67 | 1010.8 |
| 20260510185255 | 31 | 89 | 6.4 | 20.9 | 0.00 | 0.00 | 0.00 | 67 | 1010.8 |
| 20260510185156 | 31 | 144 | 6.4 | 20.9 | 0.00 | 0.00 | 0.00 | 66 | 1010.8 |
| 20260510185055 | 31 | 109 | 6.4 | 20.9 | 0.00 | 0.00 | 0.00 | 66 | 1010.8 |
| 20260510184955 | 31 | 110 | 6.4 | 20.9 | 0.00 | 0.00 | 0.00 | 66 | 1010.7 |
| 20260510184856 | 31 | 157 | 9.7 | 20.9 | 0.00 | 0.00 | 0.00 | 66 | 1010.8 |
| 20260510184756 | 31 | 127 | 14.5 | 20.9 | 0.00 | 0.00 | 0.00 | 66 | 1010.8 |
| 20260510184655 | 31 | 87 | 14.5 | 20.9 | 0.00 | 0.00 | 0.00 | 65 | 1010.7 |
| 20260510184555 | 31 | 103 | 12.9 | 20.9 | 0.00 | 0.00 | 0.00 | 66 | 1010.8 |
| 20260510184456 | 31 | 145 | 9.7 | 20.9 | 0.00 | 0.00 | 0.00 | 65 | 1010.8 |
| 20260510184355 | 31 | 109 | 4.8 | 16.1 | 0.00 | 0.00 | 0.00 | 64 | 1010.7 |
| 20260510184254 | 32 | 224 | 6.4 | 16.1 | 0.00 | 0.00 | 0.00 | 65 | 1010.8 |
| 20260510184156 | 32 | 162 | 6.4 | 16.1 | 0.00 | 0.00 | 0.00 | 64 | 1010.8 |
| 20260510184056 | 32 | 109 | 8.0 | 22.5 | 0.00 | 0.00 | 0.00 | 64 | 1010.8 |
| 20260510183955 | 32 | 171 | 6.4 | 22.5 | 0.00 | 0.00 | 0.00 | 64 | 1010.8 |
| 20260510183855 | 32 | 111 | 8.0 | 22.5 | 0.00 | 0.00 | 0.00 | 65 | 1010.8 |
| 20260510183756 | 32 | 125 | 9.7 | 22.5 | 0.00 | 0.00 | 0.00 | 64 | 1010.8 |
| 20260510183655 | 32 | 99 | 9.7 | 22.5 | 0.00 | 0.00 | 0.00 | 65 | 1010.8 |
| 20260510183554 | 32 | 97 | 11.3 | 22.5 | 0.00 | 0.00 | 0.00 | 65 | 1010.8 |
| 20260510183456 | 32 | 151 | 9.7 | 22.5 | 0.00 | 0.00 | 0.00 | 65 | 1010.8 |
| 20260510183355 | 32 | 104 | 6.4 | 22.5 | 0.00 | 0.00 | 0.00 | 66 | 1010.8 |
| 20260510183254 | 31 | 166 | 11.3 | 24.1 | 0.00 | 0.00 | 0.00 | 66 | 1010.9 |
| 20260510183154 | 31 | 114 | 14.5 | 24.1 | 0.00 | 0.00 | 0.00 | 65 | 1010.9 |
| 20260510183056 | 31 | 92 | 14.5 | 24.1 | 0.00 | 0.00 | 0.00 | 65 | 1010.8 |
| 20260510182955 | 31 | 93 | 11.3 | 24.1 | 0.00 | 0.00 | 0.00 | 66 | 1010.9 |
| 20260510182854 | 31 | 120 | 11.3 | 24.1 | 0.00 | 0.00 | 0.00 | 66 | 1010.9 |
| 20260510182755 | 31 | 141 | 14.5 | 24.1 | 0.00 | 0.00 | 0.00 | 66 | 1010.9 |
| 20260510182656 | 31 | 137 | 16.1 | 24.1 | 0.00 | 0.00 | 0.00 | 67 | 1010.9 |
| 20260510182555 | 31 | 94 | 12.9 | 24.1 | 0.00 | 0.00 | 0.00 | 66 | 1010.9 |
| 20260510182455 | 31 | 110 | 14.5 | 24.1 | 0.00 | 0.00 | 0.00 | 66 | 1010.9 |
| 20260510182355 | 32 | 118 | 14.5 | 24.1 | 0.00 | 0.00 | 0.00 | 66 | 1010.9 |
| 20260510182254 | 32 | 124 | 11.3 | 22.5 | 0.00 | 0.00 | 0.00 | 66 | 1011.0 |
| 20260510182155 | 31 | 42 | 9.7 | 22.5 | 0.00 | 0.00 | 0.00 | 66 | 1011.0 |
| 20260510182055 | 31 | 189 | 6.4 | 22.5 | 0.00 | 0.00 | 0.00 | 66 | 1011.0 |
| 20260510181955 | 31 | 142 | 6.4 | 22.5 | 0.00 | 0.00 | 0.00 | 66 | 1011.1 |
| 20260510181854 | 31 | 94 | 9.7 | 22.5 | 0.00 | 0.00 | 0.00 | 67 | 1011.0 |
| 20260510181754 | 31 | 120 | 12.9 | 22.5 | 0.00 | 0.00 | 0.00 | 67 | 1011.1 |
| 20260510181655 | 31 | 121 | 14.5 | 22.5 | 0.00 | 0.00 | 0.00 | 67 | 1011.1 |
| 20260510181554 | 31 | 87 | 14.5 | 22.5 | 0.00 | 0.00 | 0.00 | 66 | 1011.2 |
| 20260510181454 | 31 | 124 | 16.1 | 22.5 | 0.00 | 0.00 | 0.00 | 66 | 1011.1 |
| 20260510181356 | 31 | 99 | 11.3 | 22.5 | 0.00 | 0.00 | 0.00 | 66 | 1011.0 |
| 20260510181255 | 31 | 93 | 8.0 | 22.5 | 0.00 | 0.00 | 0.00 | 66 | 1011.1 |
| 20260510181155 | 31 | 109 | 8.0 | 22.5 | 0.00 | 0.00 | 0.00 | 66 | 1011.1 |
| 20260510181055 | 31 | 142 | 8.0 | 22.5 | 0.00 | 0.00 | 0.00 | 65 | 1011.2 |
| 20260510180956 | 31 | 90 | 9.7 | 22.5 | 0.00 | 0.00 | 0.00 | 66 | 1011.2 |
| 20260510180854 | 31 | 109 | 11.3 | 22.5 | 0.00 | 0.00 | 0.00 | 65 | 1011.2 |
| 20260510180754 | 32 | 96 | 14.5 | 22.5 | 0.00 | 0.00 | 0.00 | 65 | 1011.3 |
| 20260510180655 | 32 | 106 | 11.3 | 22.5 | 0.00 | 0.00 | 0.00 | 66 | 1011.3 |
| 20260510180555 | 31 | 97 | 6.4 | 20.9 | 0.00 | 0.00 | 0.00 | 67 | 1011.3 |
| 20260510180454 | 31 | 179 | 6.4 | 20.9 | 0.00 | 0.00 | 0.00 | 68 | 1011.3 |
| 20260510180355 | 31 | 94 | 6.4 | 22.5 | 0.00 | 0.00 | 0.00 | 67 | 1011.3 |
| 20260510180254 | 31 | 109 | 12.9 | 22.5 | 0.00 | 0.00 | 0.00 | 66 | 1011.3 |
| 20260510180154 | 31 | 102 | 16.1 | 22.5 | 0.00 | 0.00 | 0.00 | 67 | 1011.4 |
| 20260510180055 | 31 | 86 | 14.5 | 24.1 | 0.00 | 0.00 | 0.00 | 66 | 1011.3 |
| 20260510175955 | 31 | 106 | 12.9 | 24.1 | 0.00 | 0.00 | 0.00 | 66 | 1011.4 |
| 20260510175854 | 31 | 113 | 14.5 | 24.1 | 0.00 | 0.00 | 0.00 | 68 | 1011.4 |
| 20260510175755 | 31 | 103 | 12.9 | 24.1 | 0.00 | 0.00 | 0.00 | 68 | 1011.4 |
| 20260510175654 | 31 | 93 | 11.3 | 24.1 | 0.00 | 0.00 | 0.00 | 68 | 1011.3 |
| 20260510175554 | 31 | 96 | 14.5 | 24.1 | 0.00 | 0.00 | 0.00 | 68 | 1011.3 |
| 20260510175454 | 31 | 121 | 14.5 | 24.1 | 0.00 | 0.00 | 0.00 | 68 | 1011.3 |
| 20260510175354 | 31 | 99 | 12.9 | 24.1 | 0.00 | 0.00 | 0.00 | 68 | 1011.4 |
| 20260510175254 | 31 | 109 | 17.7 | 24.1 | 0.00 | 0.00 | 0.00 | 67 | 1011.5 |
| 20260510175155 | 31 | 80 | 19.3 | 24.1 | 0.00 | 0.00 | 0.00 | 67 | 1011.4 |
| 20260510175054 | 31 | 109 | 14.5 | 22.5 | 0.00 | 0.00 | 0.00 | 67 | 1011.4 |
| 20260510174955 | 31 | 87 | 9.7 | 20.9 | 0.00 | 0.00 | 0.00 | 67 | 1011.4 |
| 20260510174854 | 31 | 110 | 8.0 | 20.9 | 0.00 | 0.00 | 0.00 | 68 | 1011.4 |
| 20260510174754 | 31 | 97 | 11.3 | 20.9 | 0.00 | 0.00 | 0.00 | 65 | 1011.4 |
| 20260510174654 | 31 | 96 | 14.5 | 20.9 | 0.00 | 0.00 | 0.00 | 66 | 1011.4 |
| 20260510174551 | 31 | 114 | 14.5 | 20.9 | 0.00 | 0.00 | 0.00 | 66 | 1011.4 |
| 20260510174451 | 31 | 111 | 16.1 | 20.9 | 0.00 | 0.00 | 0.00 | 66 | 1011.4 |
| 20260510174352 | 31 | 110 | 12.9 | 20.9 | 0.00 | 0.00 | 0.00 | 66 | 1011.4 |
| 20260510174249 | 31 | 114 | 9.7 | 20.9 | 0.00 | 0.00 | 0.00 | 67 | 1011.3 |
| 20260510174148 | 31 | 83 | 8.0 | 20.9 | 0.00 | 0.00 | 0.00 | 68 | 1011.3 |
| 20260510174048 | 31 | 79 | 6.4 | 20.9 | 0.00 | 0.00 | 0.00 | 69 | 1011.4 |
| 20260510173946 | 31 | 103 | 4.8 | 22.5 | 0.00 | 0.00 | 0.00 | 69 | 1011.4 |
| 20260510173844 | 31 | 124 | 6.4 | 22.5 | 0.00 | 0.00 | 0.00 | 69 | 1011.5 |
| 20260510173743 | 30 | 82 | 9.7 | 22.5 | 0.00 | 0.00 | 0.00 | 70 | 1011.4 |
| 20260510173641 | 31 | 93 | 12.9 | 22.5 | 0.00 | 0.00 | 0.00 | 69 | 1011.4 |
| 20260510173540 | 31 | 97 | 12.9 | 22.5 | 0.00 | 0.00 | 0.00 | 69 | 1011.5 |
| 20260510173439 | 31 | 117 | 12.9 | 22.5 | 0.00 | 0.00 | 0.00 | 68 | 1011.5 |
| 20260510173338 | 31 | 118 | 11.3 | 22.5 | 0.00 | 0.00 | 0.00 | 68 | 1011.4 |
| 20260510173234 | 30 | 116 | 11.3 | 22.5 | 0.00 | 0.00 | 0.00 | 68 | 1011.5 |
| 20260510173133 | 31 | 87 | 12.9 | 22.5 | 0.00 | 0.00 | 0.00 | 68 | 1011.5 |
| 20260510173033 | 31 | 107 | 16.1 | 22.5 | 0.00 | 0.00 | 0.00 | 70 | 1011.5 |
| 20260510172932 | 31 | 100 | 12.9 | 22.5 | 0.00 | 0.00 | 0.00 | 70 | 1011.5 |
| 20260510172832 | 30 | 121 | 9.7 | 20.9 | 0.00 | 0.00 | 0.00 | 71 | 1011.4 |
| 20260510172732 | 30 | 100 | 9.7 | 20.9 | 0.00 | 0.00 | 0.00 | 70 | 1011.5 |
| 20260510172631 | 30 | 82 | 9.7 | 20.9 | 0.00 | 0.00 | 0.00 | 69 | 1011.5 |
| 20260510172532 | 31 | 86 | 12.9 | 20.9 | 0.00 | 0.00 | 0.00 | 70 | 1011.5 |
| 20260510172431 | 31 | 113 | 11.3 | 20.9 | 0.00 | 0.00 | 0.00 | 70 | 1011.6 |
| 20260510172332 | 31 | 103 | 9.7 | 20.9 | 0.00 | 0.00 | 0.00 | 71 | 1011.6 |
| 20260510172231 | 31 | 99 | 6.4 | 20.9 | 0.00 | 0.00 | 0.00 | 72 | 1011.6 |
| 20260510172131 | 30 | 72 | 6.4 | 20.9 | 0.00 | 0.00 | 0.00 | 71 | 1011.7 |
| 20260510172032 | 30 | 179 | 9.7 | 20.9 | 0.00 | 0.00 | 0.00 | 72 | 1011.7 |
| 20260510171932 | 30 | 103 | 12.9 | 20.9 | 0.00 | 0.00 | 0.00 | 72 | 1011.7 |
| 20260510171831 | 30 | 104 | 14.5 | 20.9 | 0.00 | 0.00 | 0.00 | 73 | 1011.7 |
| 20260510171731 | 30 | 82 | 11.3 | 20.9 | 0.00 | 0.00 | 0.00 | 73 | 1011.7 |
| 20260510171632 | 30 | 66 | 9.7 | 20.9 | 0.00 | 0.00 | 0.00 | 74 | 1011.8 |
| 20260510171531 | 29 | 96 | 14.5 | 20.9 | 0.00 | 0.00 | 0.00 | 73 | 1011.8 |
| 20260510171429 | 29 | 97 | 14.5 | 20.9 | 0.00 | 0.00 | 0.00 | 73 | 1011.8 |
| 20260510171327 | 29 | 99 | 11.3 | 16.1 | 0.00 | 0.00 | 0.00 | 73 | 1011.8 |
| 20260510171226 | 29 | 99 | 9.7 | 16.1 | 0.00 | 0.00 | 0.00 | 73 | 1011.9 |
| 20260510171125 | 29 | 89 | 8.0 | 16.1 | 0.00 | 0.00 | 0.00 | 73 | 1011.9 |
| 20260510171023 | 29 | 76 | 6.4 | 16.1 | 0.00 | 0.00 | 0.00 | 73 | 1011.9 |
| 20260510170921 | 30 | 80 | 6.4 | 16.1 | 0.00 | 0.00 | 0.00 | 72 | 1011.9 |
| 20260510170818 | 30 | 63 | 8.0 | 16.1 | 0.00 | 0.00 | 0.00 | 72 | 1011.9 |
| 20260510170719 | 30 | 83 | 9.7 | 16.1 | 0.00 | 0.00 | 0.00 | 72 | 1012.0 |
| 20260510170616 | 30 | 49 | 8.0 | 16.1 | 0.00 | 0.00 | 0.00 | 72 | 1012.0 |
| 20260510170515 | 30 | 54 | 9.7 | 16.1 | 0.00 | 0.00 | 0.00 | 72 | 1012.0 |
| 20260510170415 | 30 | 34 | 11.3 | 16.1 | 0.00 | 0.00 | 0.00 | 72 | 1012.1 |
| 20260510170312 | 30 | 73 | 8.0 | 16.1 | 0.00 | 0.00 | 0.00 | 72 | 1012.1 |
| 20260510170205 | 30 | 73 | 3.2 | 16.1 | 0.00 | 0.00 | 0.00 | 72 | 1012.1 |
| 20260510170104 | 30 | 42 | 0.0 | 16.1 | 0.00 | 0.00 | 0.00 | 72 | 1012.1 |
| 20260510170003 | 30 | 106 | 1.6 | 17.7 | 0.00 | 0.00 | 0.00 | 71 | 1012.1 |
| 20260510165853 | 30 | 106 | 4.8 | 17.7 | 0.00 | 0.00 | 0.00 | 71 | 1012.1 |
| 20260510165753 | 30 | 110 | 4.8 | 17.7 | 0.00 | 0.00 | 0.00 | 71 | 1012.1 |
| 20260510165653 | 30 | 79 | 6.4 | 17.7 | 0.00 | 0.00 | 0.00 | 70 | 1012.2 |
| 20260510165552 | 30 | 83 | 9.7 | 17.7 | 0.00 | 0.00 | 0.00 | 71 | 1012.3 |
| 20260510165452 | 30 | 92 | 11.3 | 17.7 | 0.00 | 0.00 | 0.00 | 70 | 1012.3 |
| 20260510165353 | 30 | 89 | 11.3 | 17.7 | 0.00 | 0.00 | 0.00 | 70 | 1012.2 |
| 20260510165252 | 30 | 96 | 9.7 | 17.7 | 0.00 | 0.00 | 0.00 | 70 | 1012.2 |
| 20260510165152 | 30 | 89 | 9.7 | 17.7 | 0.00 | 0.00 | 0.00 | 70 | 1012.3 |
| 20260510165052 | 30 | 86 | 11.3 | 17.7 | 0.00 | 0.00 | 0.00 | 70 | 1012.3 |
| 20260510164953 | 30 | 55 | 8.0 | 16.1 | 0.00 | 0.00 | 0.00 | 71 | 1012.2 |
| 20260510164852 | 30 | 62 | 9.7 | 16.1 | 0.00 | 0.00 | 0.00 | 71 | 1012.2 |
| 20260510164752 | 30 | 83 | 9.7 | 16.1 | 0.00 | 0.00 | 0.00 | 71 | 1012.3 |
| 20260510164652 | 30 | 68 | 6.4 | 16.1 | 0.00 | 0.00 | 0.00 | 70 | 1012.3 |
| 20260510164553 | 30 | 28 | 6.4 | 16.1 | 0.00 | 0.00 | 0.00 | 71 | 1012.3 |
| 20260510164454 | 30 | 56 | 6.4 | 16.1 | 0.00 | 0.00 | 0.00 | 70 | 1012.3 |
| 20260510164353 | 30 | 41 | 6.4 | 16.1 | 0.00 | 0.00 | 0.00 | 70 | 1012.2 |
| 20260510164253 | 30 | 21 | 9.7 | 16.1 | 0.00 | 0.00 | 0.00 | 70 | 1012.3 |
| 20260510164152 | 30 | 28 | 11.3 | 16.1 | 0.00 | 0.00 | 0.00 | 70 | 1012.2 |
| 20260510164053 | 30 | 45 | 9.7 | 16.1 | 0.00 | 0.00 | 0.00 | 70 | 1012.3 |
| 20260510163953 | 30 | 68 | 9.7 | 16.1 | 0.00 | 0.00 | 0.00 | 70 | 1012.3 |
| 20260510163852 | 30 | 68 | 9.7 | 16.1 | 0.00 | 0.00 | 0.00 | 70 | 1012.2 |
| 20260510163753 | 30 | 75 | 11.3 | 16.1 | 0.00 | 0.00 | 0.00 | 71 | 1012.3 |
| 20260510163655 | 30 | 78 | 8.0 | 16.1 | 0.00 | 0.00 | 0.00 | 72 | 1012.3 |
| 20260510163552 | 30 | 79 | 3.2 | 11.3 | 0.00 | 0.00 | 0.00 | 72 | 1012.2 |
| 20260510163452 | 30 | 90 | 3.2 | 14.5 | 0.00 | 0.00 | 0.00 | 72 | 1012.3 |
| 20260510163352 | 30 | 90 | 4.8 | 14.5 | 0.00 | 0.00 | 0.00 | 71 | 1012.3 |
| 20260510163253 | 30 | 135 | 6.4 | 17.7 | 0.00 | 0.00 | 0.00 | 72 | 1012.3 |
| 20260510163152 | 30 | 14 | 6.4 | 17.7 | 0.00 | 0.00 | 0.00 | 73 | 1012.3 |
| 20260510163052 | 30 | 97 | 8.0 | 17.7 | 0.00 | 0.00 | 0.00 | 73 | 1012.2 |
| 20260510162954 | 30 | 92 | 8.0 | 17.7 | 0.00 | 0.00 | 0.00 | 72 | 1012.2 |
| 20260510162851 | 30 | 83 | 9.7 | 17.7 | 0.00 | 0.00 | 0.00 | 72 | 1012.2 |
| 20260510162753 | 30 | 55 | 9.7 | 17.7 | 0.00 | 0.00 | 0.00 | 72 | 1012.2 |
| 20260510162653 | 30 | 87 | 9.7 | 17.7 | 0.00 | 0.00 | 0.00 | 72 | 1012.2 |
| 20260510162554 | 30 | 99 | 9.7 | 17.7 | 0.00 | 0.00 | 0.00 | 72 | 1012.2 |
| 20260510162451 | 30 | 71 | 9.7 | 17.7 | 0.00 | 0.00 | 0.00 | 71 | 1012.3 |
| 20260510162354 | 30 | 93 | 11.3 | 17.7 | 0.00 | 0.00 | 0.00 | 72 | 1012.3 |
| 20260510162253 | 30 | 71 | 6.4 | 16.1 | 0.00 | 0.00 | 0.00 | 72 | 1012.3 |
| 20260510162152 | 30 | 55 | 4.8 | 16.1 | 0.00 | 0.00 | 0.00 | 72 | 1012.3 |
| 20260510162051 | 30 | 82 | 6.4 | 16.1 | 0.00 | 0.00 | 0.00 | 72 | 1012.4 |
| 20260510161953 | 30 | 104 | 6.4 | 16.1 | 0.00 | 0.00 | 0.00 | 73 | 1012.3 |
| 20260510161853 | 30 | 96 | 6.4 | 16.1 | 0.00 | 0.00 | 0.00 | 73 | 1012.5 |
| 20260510161752 | 30 | 103 | 6.4 | 17.7 | 0.00 | 0.00 | 0.00 | 74 | 1012.3 |
| 20260510161652 | 29 | 92 | 8.0 | 17.7 | 0.00 | 0.00 | 0.00 | 73 | 1012.3 |
| 20260510161552 | 29 | 100 | 9.7 | 17.7 | 0.00 | 0.00 | 0.00 | 73 | 1012.4 |
| 20260510161452 | 29 | 102 | 9.7 | 17.7 | 0.00 | 0.00 | 0.00 | 74 | 1012.5 |
| 20260510161352 | 29 | 116 | 8.0 | 17.7 | 0.00 | 0.00 | 0.00 | 73 | 1012.5 |
| 20260510161251 | 29 | 80 | 8.0 | 17.7 | 0.00 | 0.00 | 0.00 | 74 | 1012.5 |
| 20260510161153 | 29 | 73 | 6.4 | 17.7 | 0.00 | 0.00 | 0.00 | 74 | 1012.5 |
| 20260510161052 | 29 | 97 | 4.8 | 17.7 | 0.00 | 0.00 | 0.00 | 74 | 1012.5 |
| 20260510160952 | 29 | 94 | 8.0 | 17.7 | 0.00 | 0.00 | 0.00 | 74 | 1012.5 |
| 20260510160852 | 29 | 118 | 9.7 | 17.7 | 0.00 | 0.00 | 0.00 | 74 | 1012.6 |
| 20260510160751 | 29 | 118 | 8.0 | 14.5 | 0.00 | 0.00 | 0.00 | 73 | 1012.6 |
| 20260510160651 | 29 | 96 | 8.0 | 14.5 | 0.00 | 0.00 | 0.00 | 75 | 1012.6 |
| 20260510160551 | 29 | 102 | 6.4 | 14.5 | 0.00 | 0.00 | 0.00 | 75 | 1012.6 |
| 20260510160453 | 29 | 86 | 6.4 | 17.7 | 0.00 | 0.00 | 0.00 | 74 | 1012.6 |
| 20260510160352 | 29 | 59 | 8.0 | 17.7 | 0.00 | 0.00 | 0.00 | 75 | 1012.6 |
| 20260510160251 | 29 | 72 | 3.2 | 17.7 | 0.00 | 0.00 | 0.00 | 75 | 1012.5 |
| 20260510160153 | 29 | 145 | 4.8 | 17.7 | 0.00 | 0.00 | 0.00 | 76 | 1012.6 |
| 20260510160052 | 29 | 125 | 8.0 | 17.7 | 0.00 | 0.00 | 0.00 | 75 | 1012.6 |
| 20260510155953 | 28 | 109 | 6.4 | 17.7 | 0.00 | 0.00 | 0.00 | 75 | 1012.6 |
| 20260510155852 | 28 | 66 | 8.0 | 17.7 | 0.00 | 0.00 | 0.00 | 75 | 1012.7 |
| 20260510155751 | 29 | 62 | 9.7 | 17.7 | 0.00 | 0.00 | 0.00 | 75 | 1012.7 |
| 20260510155651 | 29 | 97 | 11.3 | 17.7 | 0.00 | 0.00 | 0.00 | 76 | 1012.7 |
| 20260510155553 | 28 | 59 | 9.7 | 17.7 | 0.00 | 0.00 | 0.00 | 77 | 1012.8 |
| 20260510155452 | 28 | 118 | 4.8 | 11.3 | 0.00 | 0.00 | 0.00 | 77 | 1012.7 |
| 20260510155351 | 28 | 109 | 6.4 | 11.3 | 0.00 | 0.00 | 0.00 | 77 | 1012.8 |
| 20260510155252 | 28 | 104 | 6.4 | 16.1 | 0.00 | 0.00 | 0.00 | 77 | 1012.8 |
| 20260510155152 | 28 | 104 | 4.8 | 16.1 | 0.00 | 0.00 | 0.00 | 78 | 1012.8 |
| 20260510155052 | 28 | 104 | 3.2 | 16.1 | 0.00 | 0.00 | 0.00 | 79 | 1012.8 |
| 20260510154951 | 28 | 104 | 3.2 | 16.1 | 0.00 | 0.00 | 0.00 | 79 | 1012.8 |
| 20260510154852 | 27 | 97 | 4.8 | 16.1 | 0.00 | 0.00 | 0.00 | 79 | 1012.7 |
| 20260510154753 | 27 | 94 | 4.8 | 16.1 | 0.00 | 0.00 | 0.00 | 79 | 1012.8 |
| 20260510154651 | 27 | 86 | 6.4 | 16.1 | 0.00 | 0.00 | 0.00 | 79 | 1012.8 |
| 20260510154551 | 27 | 85 | 8.0 | 16.1 | 0.00 | 0.00 | 0.00 | 78 | 1012.8 |
| 20260510154453 | 28 | 63 | 9.7 | 16.1 | 0.00 | 0.00 | 0.00 | 78 | 1012.8 |
| 20260510154352 | 28 | 79 | 9.7 | 16.1 | 0.00 | 0.00 | 0.00 | 78 | 1012.9 |
| 20260510154252 | 28 | 110 | 8.0 | 16.1 | 0.00 | 0.00 | 0.00 | 78 | 1012.8 |
| 20260510154152 | 28 | 109 | 9.7 | 16.1 | 0.00 | 0.00 | 0.00 | 78 | 1012.8 |
| 20260510154052 | 28 | 114 | 8.0 | 16.1 | 0.00 | 0.00 | 0.00 | 78 | 1012.8 |
| 20260510153952 | 28 | 103 | 8.0 | 11.3 | 0.00 | 0.00 | 0.00 | 79 | 1012.8 |
| 20260510153850 | 27 | 97 | 6.4 | 11.3 | 0.00 | 0.00 | 0.00 | 79 | 1012.7 |
| 20260510153752 | 27 | 80 | 6.4 | 11.3 | 0.00 | 0.00 | 0.00 | 79 | 1012.8 |
| 20260510153651 | 27 | 92 | 6.4 | 16.1 | 0.00 | 0.00 | 0.00 | 79 | 1012.7 |
| 20260510153551 | 27 | 125 | 6.4 | 16.1 | 0.00 | 0.00 | 0.00 | 79 | 1012.8 |
| 20260510153452 | 27 | 86 | 8.0 | 16.1 | 0.00 | 0.00 | 0.00 | 78 | 1012.7 |
| 20260510153353 | 27 | 94 | 8.0 | 16.1 | 0.00 | 0.00 | 0.00 | 79 | 1012.7 |
| 20260510153251 | 28 | 94 | 4.8 | 16.1 | 0.00 | 0.00 | 0.00 | 79 | 1012.8 |
| 20260510153150 | 28 | 85 | 1.6 | 16.1 | 0.00 | 0.00 | 0.00 | 79 | 1012.8 |
| 20260510153051 | 28 | 54 | 1.6 | 16.1 | 0.00 | 0.00 | 0.00 | 79 | 1012.8 |
| 20260510152950 | 28 | 54 | 4.8 | 16.1 | 0.00 | 0.00 | 0.00 | 79 | 1012.8 |
| 20260510152850 | 28 | 54 | 9.7 | 16.1 | 0.00 | 0.00 | 0.00 | 79 | 1012.8 |
| 20260510152750 | 27 | 55 | 9.7 | 16.1 | 0.00 | 0.00 | 0.00 | 80 | 1012.8 |
| 20260510152652 | 27 | 47 | 8.0 | 14.5 | 0.00 | 0.00 | 0.00 | 80 | 1012.8 |
| 20260510152550 | 27 | 68 | 9.7 | 14.5 | 0.00 | 0.00 | 0.00 | 80 | 1012.9 |
| 20260510152450 | 27 | 73 | 9.7 | 14.5 | 0.00 | 0.00 | 0.00 | 81 | 1012.9 |
| 20260510152352 | 27 | 72 | 6.4 | 14.5 | 0.00 | 0.00 | 0.00 | 81 | 1013.0 |
| 20260510152250 | 27 | 47 | 4.8 | 14.5 | 0.00 | 0.00 | 0.00 | 82 | 1012.9 |
| 20260510152150 | 27 | 102 | 6.4 | 17.7 | 0.00 | 0.00 | 0.00 | 81 | 1012.9 |
| 20260510152051 | 27 | 107 | 6.4 | 17.7 | 0.00 | 0.00 | 0.00 | 81 | 1012.9 |
| 20260510151952 | 27 | 94 | 8.0 | 17.7 | 0.00 | 0.00 | 0.00 | 80 | 1012.9 |
| 20260510151851 | 27 | 102 | 11.3 | 17.7 | 0.00 | 0.00 | 0.00 | 80 | 1013.0 |
| 20260510151750 | 27 | 94 | 11.3 | 17.7 | 0.00 | 0.00 | 0.00 | 80 | 1013.0 |
| 20260510151651 | 27 | 71 | 9.7 | 17.7 | 0.00 | 0.00 | 0.00 | 80 | 1012.9 |
| 20260510151550 | 27 | 94 | 8.0 | 17.7 | 0.00 | 0.00 | 0.00 | 81 | 1013.0 |
| 20260510151450 | 27 | 133 | 8.0 | 17.7 | 0.00 | 0.00 | 0.00 | 81 | 1013.0 |
| 20260510151350 | 27 | 73 | 8.0 | 17.7 | 0.00 | 0.00 | 0.00 | 82 | 1013.0 |
| 20260510151252 | 27 | 82 | 6.4 | 17.7 | 0.00 | 0.00 | 0.00 | 83 | 1013.0 |
| 20260510151151 | 27 | 41 | 6.4 | 11.3 | 0.00 | 0.00 | 0.00 | 83 | 1013.0 |
| 20260510151050 | 27 | 358 | 6.4 | 11.3 | 0.00 | 0.00 | 0.00 | 83 | 1012.9 |
| 20260510150952 | 27 | 21 | 8.0 | 11.3 | 0.00 | 0.00 | 0.00 | 84 | 1013.0 |
| 20260510150852 | 27 | 27 | 8.0 | 14.5 | 0.00 | 0.00 | 0.00 | 84 | 1012.9 |
| 20260510150751 | 27 | 7 | 8.0 | 14.5 | 0.00 | 0.00 | 0.00 | 84 | 1013.0 |
| 20260510150651 | 27 | 0 | 8.0 | 14.5 | 0.00 | 0.00 | 0.00 | 84 | 1013.0 |
| 20260510150550 | 26 | 44 | 8.0 | 14.5 | 0.00 | 0.00 | 0.00 | 84 | 1012.9 |
| 20260510150449 | 26 | 17 | 8.0 | 14.5 | 0.00 | 0.00 | 0.00 | 84 | 1012.9 |
| 20260510150350 | 26 | 7 | 8.0 | 14.5 | 0.00 | 0.00 | 0.00 | 84 | 1013.0 |
| 20260510150252 | 26 | 30 | 8.0 | 14.5 | 0.00 | 0.00 | 0.00 | 85 | 1013.0 |
| 20260510150151 | 26 | 3 | 8.0 | 14.5 | 0.00 | 0.00 | 0.00 | 85 | 1013.1 |
| 20260510150050 | 26 | 32 | 9.7 | 14.5 | 0.00 | 0.00 | 0.00 | 85 | 1013.0 |
| 20260510145952 | 26 | 37 | 8.0 | 14.5 | 0.00 | 0.00 | 0.00 | 84 | 1013.0 |
| 20260510145851 | 26 | 44 | 8.0 | 14.5 | 0.00 | 0.00 | 0.00 | 85 | 1012.9 |
| 20260510145750 | 27 | 30 | 8.0 | 14.5 | 0.00 | 0.00 | 0.00 | 85 | 1012.9 |
| 20260510145650 | 27 | 30 | 8.0 | 14.5 | 0.00 | 0.00 | 0.00 | 85 | 1013.0 |
| 20260510145552 | 27 | 24 | 8.0 | 14.5 | 0.00 | 0.00 | 0.00 | 85 | 1012.9 |
| 20260510145449 | 26 | 38 | 9.7 | 16.1 | 0.00 | 0.00 | 0.00 | 84 | 1012.9 |
| 20260510145350 | 27 | 38 | 9.7 | 16.1 | 0.00 | 0.00 | 0.00 | 85 | 1013.0 |
| 20260510145250 | 27 | 51 | 6.4 | 16.1 | 0.00 | 0.00 | 0.00 | 85 | 1013.0 |
| 20260510145149 | 27 | 44 | 6.4 | 16.1 | 0.00 | 0.00 | 0.00 | 85 | 1013.0 |
| 20260510145049 | 27 | 18 | 4.8 | 16.1 | 0.00 | 0.00 | 0.00 | 85 | 1012.9 |
| 20260510144951 | 26 | 21 | 4.8 | 16.1 | 0.00 | 0.00 | 0.00 | 86 | 1013.0 |
| 20260510144852 | 26 | 80 | 4.8 | 16.1 | 0.00 | 0.00 | 0.00 | 85 | 1012.9 |
| 20260510144749 | 26 | 63 | 4.8 | 16.1 | 0.00 | 0.00 | 0.00 | 86 | 1012.9 |
| 20260510144649 | 26 | 54 | 6.4 | 16.1 | 0.00 | 0.00 | 0.00 | 85 | 1013.0 |
| 20260510144549 | 26 | 32 | 9.7 | 16.1 | 0.00 | 0.00 | 0.00 | 85 | 1013.0 |
| 20260510144449 | 26 | 68 | 9.7 | 17.7 | 0.00 | 0.00 | 0.00 | 86 | 1013.0 |
| 20260510144350 | 26 | 55 | 9.7 | 17.7 | 0.00 | 0.00 | 0.00 | 86 | 1012.9 |
| 20260510144249 | 26 | 16 | 9.7 | 17.7 | 0.00 | 0.00 | 0.00 | 86 | 1012.9 |
| 20260510144150 | 26 | 35 | 8.0 | 17.7 | 0.00 | 0.00 | 0.00 | 87 | 1012.9 |
| 20260510144049 | 26 | 44 | 6.4 | 17.7 | 0.00 | 0.00 | 0.00 | 87 | 1012.9 |
| 20260510143949 | 26 | 0 | 6.4 | 17.7 | 0.00 | 0.00 | 0.00 | 87 | 1012.9 |
| 20260510143851 | 26 | 16 | 8.0 | 17.7 | 0.00 | 0.00 | 0.00 | 87 | 1012.9 |
| 20260510143750 | 26 | 16 | 8.0 | 17.7 | 0.00 | 0.00 | 0.00 | 87 | 1012.9 |
| 20260510143650 | 26 | 0 | 9.7 | 17.7 | 0.00 | 0.00 | 0.00 | 87 | 1013.0 |
| 20260510143549 | 26 | 17 | 8.0 | 17.7 | 0.00 | 0.00 | 0.00 | 87 | 1013.0 |
| 20260510143450 | 26 | 16 | 8.0 | 14.5 | 0.00 | 0.00 | 0.00 | 88 | 1012.9 |
| 20260510143349 | 26 | 27 | 6.4 | 14.5 | 0.00 | 0.00 | 0.00 | 88 | 1012.9 |
| 20260510143249 | 26 | 25 | 6.4 | 14.5 | 0.00 | 0.00 | 0.00 | 88 | 1012.9 |
| 20260510143150 | 26 | 30 | 8.0 | 14.5 | 0.00 | 0.00 | 0.00 | 88 | 1012.9 |
| 20260510143050 | 26 | 30 | 8.0 | 14.5 | 0.00 | 0.00 | 0.00 | 88 | 1012.9 |
| 20260510142949 | 26 | 28 | 8.0 | 14.5 | 0.00 | 0.00 | 0.00 | 88 | 1012.9 |
| 20260510142849 | 26 | 42 | 9.7 | 14.5 | 0.00 | 0.00 | 0.00 | 88 | 1012.8 |
| 20260510142751 | 26 | 45 | 9.7 | 14.5 | 0.00 | 0.00 | 0.00 | 88 | 1012.9 |
| 20260510142650 | 26 | 28 | 9.7 | 14.5 | 0.00 | 0.00 | 0.00 | 88 | 1012.9 |
| 20260510142549 | 26 | 31 | 8.0 | 14.5 | 0.00 | 0.00 | 0.00 | 88 | 1013.0 |
| 20260510142450 | 26 | 7 | 8.0 | 14.5 | 0.00 | 0.00 | 0.00 | 88 | 1012.9 |
| 20260510142349 | 26 | 16 | 8.0 | 14.5 | 0.00 | 0.00 | 0.00 | 88 | 1012.9 |
| 20260510142249 | 26 | 25 | 9.7 | 14.5 | 0.00 | 0.00 | 0.00 | 88 | 1012.9 |
| 20260510142150 | 25 | 10 | 9.7 | 14.5 | 0.00 | 0.00 | 0.00 | 88 | 1012.9 |
| 20260510142049 | 25 | 10 | 9.7 | 16.1 | 0.00 | 0.00 | 0.00 | 88 | 1012.9 |
| 20260510141949 | 26 | 16 | 11.3 | 16.1 | 0.00 | 0.00 | 0.00 | 88 | 1012.9 |
| 20260510141849 | 26 | 23 | 9.7 | 17.7 | 0.00 | 0.00 | 0.00 | 88 | 1012.9 |
| 20260510141750 | 26 | 25 | 8.0 | 17.7 | 0.00 | 0.00 | 0.00 | 88 | 1012.9 |
| 20260510141651 | 26 | 17 | 9.7 | 17.7 | 0.00 | 0.00 | 0.00 | 89 | 1012.9 |
| 20260510141550 | 26 | 17 | 9.7 | 17.7 | 0.00 | 0.00 | 0.00 | 89 | 1012.9 |
| 20260510141450 | 26 | 17 | 9.7 | 19.3 | 0.00 | 0.00 | 0.00 | 89 | 1012.9 |
| 20260510141349 | 26 | 17 | 9.7 | 19.3 | 0.00 | 0.00 | 0.00 | 89 | 1012.9 |
| 20260510141251 | 26 | 17 | 9.7 | 19.3 | 0.00 | 0.00 | 0.00 | 89 | 1012.9 |
| 20260510141148 | 26 | 38 | 9.7 | 19.3 | 0.00 | 0.00 | 0.00 | 89 | 1013.0 |
| 20260510141051 | 26 | 24 | 11.3 | 19.3 | 0.00 | 0.00 | 0.00 | 89 | 1013.0 |
| 20260510140949 | 25 | 27 | 9.7 | 19.3 | 0.00 | 0.00 | 0.00 | 90 | 1013.0 |
| 20260510140849 | 25 | 32 | 8.0 | 19.3 | 0.00 | 0.00 | 0.00 | 90 | 1013.0 |
| 20260510140750 | 25 | 18 | 12.9 | 19.3 | 0.00 | 0.00 | 0.00 | 90 | 1012.9 |
| 20260510140644 | 25 | 20 | 12.9 | 19.3 | 0.00 | 0.00 | 0.00 | 90 | 1013.0 |
| 20260510140542 | 25 | 23 | 11.3 | 19.3 | 0.00 | 0.00 | 0.00 | 90 | 1012.9 |
| 20260510140437 | 25 | 16 | 9.7 | 19.3 | 0.00 | 0.00 | 0.00 | 90 | 1012.9 |
| 20260510140335 | 25 | 11 | 9.7 | 19.3 | 0.00 | 0.00 | 0.00 | 90 | 1012.9 |
| 20260510140234 | 25 | 24 | 9.7 | 20.9 | 0.00 | 0.00 | 0.00 | 90 | 1012.9 |
| 20260510140132 | 25 | 31 | 9.7 | 20.9 | 0.00 | 0.00 | 0.00 | 91 | 1013.0 |
| 20260510140033 | 25 | 3 | 9.7 | 20.9 | 0.00 | 0.00 | 0.00 | 91 | 1013.0 |
| 20260510135932 | 25 | 20 | 9.7 | 20.9 | 0.00 | 0.00 | 0.00 | 91 | 1012.9 |
| 20260510135831 | 25 | 13 | 9.7 | 20.9 | 0.00 | 0.00 | 0.00 | 90 | 1012.9 |
| 20260510135731 | 25 | 0 | 11.3 | 20.9 | 0.00 | 0.00 | 0.00 | 90 | 1013.0 |
| 20260510135632 | 25 | 24 | 11.3 | 20.9 | 0.00 | 0.00 | 0.00 | 91 | 1012.9 |
| 20260510135533 | 25 | 20 | 14.5 | 20.9 | 0.00 | 0.00 | 0.00 | 90 | 1012.9 |
| 20260510135432 | 25 | 11 | 14.5 | 20.9 | 0.00 | 0.00 | 0.00 | 90 | 1012.9 |
| 20260510135332 | 25 | 21 | 12.9 | 20.9 | 0.00 | 0.00 | 0.00 | 90 | 1012.9 |
| 20260510135231 | 25 | 17 | 12.9 | 17.7 | 0.00 | 0.00 | 0.00 | 90 | 1012.9 |
| 20260510135132 | 25 | 28 | 11.3 | 17.7 | 0.00 | 0.00 | 0.00 | 90 | 1012.9 |
| 20260510135031 | 25 | 27 | 9.7 | 16.1 | 0.00 | 0.00 | 0.00 | 91 | 1012.9 |
| 20260510134930 | 25 | 10 | 9.7 | 16.1 | 0.00 | 0.00 | 0.00 | 91 | 1012.8 |
| 20260510134832 | 25 | 31 | 9.7 | 16.1 | 0.00 | 0.00 | 0.00 | 91 | 1012.9 |
| 20260510134731 | 25 | 24 | 9.7 | 16.1 | 0.00 | 0.00 | 0.00 | 91 | 1012.8 |
| 20260510134631 | 25 | 24 | 9.7 | 16.1 | 0.00 | 0.00 | 0.00 | 91 | 1012.8 |
| 20260510134534 | 25 | 14 | 11.3 | 16.1 | 0.00 | 0.00 | 0.00 | 91 | 1012.8 |
| 20260510134431 | 25 | 23 | 11.3 | 16.1 | 0.00 | 0.00 | 0.00 | 91 | 1012.8 |
| 20260510134332 | 25 | 24 | 11.3 | 16.1 | 0.00 | 0.00 | 0.00 | 91 | 1012.8 |
| 20260510134230 | 25 | 25 | 11.3 | 16.1 | 0.00 | 0.00 | 0.00 | 91 | 1012.8 |
| 20260510134128 | 25 | 23 | 9.7 | 16.1 | 0.00 | 0.00 | 0.00 | 91 | 1012.8 |
| 20260510134027 | 25 | 11 | 8.0 | 11.3 | 0.00 | 0.00 | 0.00 | 91 | 1012.8 |
| 20260510133926 | 25 | 1 | 8.0 | 11.3 | 0.00 | 0.00 | 0.00 | 91 | 1012.7 |
| 20260510133823 | 25 | 41 | 8.0 | 11.3 | 0.00 | 0.00 | 0.00 | 92 | 1012.7 |
| 20260510133723 | 25 | 10 | 9.7 | 11.3 | 0.00 | 0.00 | 0.00 | 92 | 1012.7 |
| 20260510133623 | 25 | 25 | 9.7 | 11.3 | 0.00 | 0.00 | 0.00 | 92 | 1012.6 |
| 20260510133519 | 25 | 20 | 6.4 | 11.3 | 0.00 | 0.00 | 0.00 | 92 | 1012.6 |
| 20260510133419 | 25 | 30 | 4.8 | 8.0 | 0.00 | 0.00 | 0.00 | 93 | 1012.7 |
| 20260510133316 | 25 | 10 | 6.4 | 8.0 | 0.00 | 0.00 | 0.00 | 93 | 1012.6 |
| 20260510133215 | 25 | 59 | 6.4 | 8.0 | 0.00 | 0.00 | 0.00 | 93 | 1012.6 |
| 20260510133113 | 25 | 34 | 6.4 | 8.0 | 0.00 | 0.00 | 0.00 | 93 | 1012.6 |
| 20260510133012 | 24 | 25 | 6.4 | 8.0 | 0.00 | 0.00 | 0.00 | 93 | 1012.5 |
| 20260510132911 | 24 | 37 | 4.8 | 8.0 | 0.00 | 0.00 | 0.00 | 93 | 1012.5 |
| 20260510132809 | 24 | 17 | 4.8 | 9.7 | 0.00 | 0.00 | 0.00 | 93 | 1012.5 |
| 20260510132708 | 24 | 17 | 6.4 | 9.7 | 0.00 | 0.00 | 0.00 | 93 | 1012.5 |
| 20260510132605 | 24 | 17 | 6.4 | 9.7 | 0.00 | 0.00 | 0.00 | 93 | 1012.5 |
| 20260510132506 | 24 | 24 | 6.4 | 9.7 | 0.00 | 0.00 | 0.00 | 93 | 1012.4 |
| 20260510132403 | 24 | 23 | 4.8 | 9.7 | 0.00 | 0.00 | 0.00 | 93 | 1012.4 |
| 20260510132306 | 24 | 14 | 4.8 | 9.7 | 0.00 | 0.00 | 0.00 | 94 | 1012.4 |
| 20260510132204 | 24 | 27 | 3.2 | 11.3 | 0.00 | 0.00 | 0.00 | 94 | 1012.4 |
| 20260510132102 | 24 | 63 | 4.8 | 11.3 | 0.00 | 0.00 | 0.00 | 94 | 1012.4 |
| 20260510132001 | 24 | 63 | 6.4 | 11.3 | 0.00 | 0.00 | 0.00 | 94 | 1012.3 |
| 20260510131902 | 24 | 59 | 8.0 | 11.3 | 0.00 | 0.00 | 0.00 | 94 | 1012.4 |
| 20260510131803 | 24 | 34 | 6.4 | 11.3 | 0.00 | 0.00 | 0.00 | 94 | 1012.3 |
| 20260510131702 | 24 | 42 | 6.4 | 11.3 | 0.00 | 0.00 | 0.00 | 94 | 1012.2 |
| 20260510131603 | 24 | 54 | 6.4 | 11.3 | 0.00 | 0.00 | 0.00 | 94 | 1012.3 |
| 20260510131503 | 24 | 21 | 8.0 | 11.3 | 0.00 | 0.00 | 0.00 | 94 | 1012.3 |
| 20260510131403 | 24 | 39 | 8.0 | 11.3 | 0.00 | 0.00 | 0.00 | 94 | 1012.2 |
| 20260510131302 | 24 | 45 | 6.4 | 11.3 | 0.00 | 0.00 | 0.00 | 94 | 1012.2 |
| 20260510131203 | 24 | 32 | 6.4 | 9.7 | 0.00 | 0.00 | 0.00 | 94 | 1012.2 |
| 20260510131102 | 24 | 34 | 4.8 | 9.7 | 0.00 | 0.00 | 0.00 | 94 | 1012.2 |
| 20260510131005 | 24 | 32 | 4.8 | 9.7 | 0.00 | 0.00 | 0.00 | 94 | 1012.1 |
| 20260510130902 | 24 | 30 | 4.8 | 9.7 | 0.00 | 0.00 | 0.00 | 94 | 1012.1 |
| 20260510130803 | 24 | 31 | 6.4 | 9.7 | 0.00 | 0.00 | 0.00 | 94 | 1012.2 |
| 20260510130701 | 24 | 11 | 6.4 | 9.7 | 0.00 | 0.00 | 0.00 | 94 | 1012.1 |
| 20260510130602 | 24 | 44 | 6.4 | 9.7 | 0.00 | 0.00 | 0.00 | 94 | 1012.1 |
| 20260510130503 | 24 | 39 | 6.4 | 8.0 | 0.00 | 0.00 | 0.00 | 94 | 1012.0 |
| 20260510130402 | 24 | 45 | 6.4 | 8.0 | 0.00 | 0.00 | 0.00 | 94 | 1012.0 |
| 20260510130303 | 24 | 47 | 6.4 | 8.0 | 0.00 | 0.00 | 0.00 | 94 | 1012.1 |
| 20260510130202 | 24 | 51 | 6.4 | 8.0 | 0.00 | 0.00 | 0.00 | 94 | 1012.1 |
| 20260510130103 | 24 | 48 | 6.4 | 8.0 | 0.00 | 0.00 | 0.00 | 94 | 1012.1 |
| 20260510130002 | 24 | 42 | 6.4 | 9.7 | 0.00 | 0.00 | 0.00 | 94 | 1012.0 |
| 20260510125901 | 24 | 39 | 6.4 | 9.7 | 0.00 | 0.00 | 0.00 | 94 | 1012.0 |
| 20260510125803 | 24 | 39 | 6.4 | 9.7 | 0.00 | 0.00 | 0.00 | 94 | 1012.0 |
| 20260510125701 | 24 | 32 | 6.4 | 9.7 | 0.00 | 0.00 | 0.00 | 94 | 1011.9 |
| 20260510125601 | 24 | 34 | 6.4 | 9.7 | 0.00 | 0.00 | 0.00 | 94 | 1011.9 |
| 20260510125503 | 24 | 28 | 3.2 | 9.7 | 0.00 | 0.00 | 0.00 | 94 | 1011.9 |
| 20260510125403 | 24 | 49 | 1.6 | 9.7 | 0.00 | 0.00 | 0.00 | 94 | 1011.9 |
| 20260510125306 | 23 | 51 | 3.2 | 9.7 | 0.00 | 0.00 | 0.00 | 94 | 1011.9 |
| 20260510125202 | 23 | 51 | 4.8 | 9.7 | 0.00 | 0.00 | 0.00 | 94 | 1012.0 |
| 20260510125102 | 23 | 59 | 6.4 | 9.7 | 0.00 | 0.00 | 0.00 | 94 | 1011.9 |
| 20260510125002 | 23 | 18 | 4.8 | 8.0 | 0.00 | 0.00 | 0.00 | 94 | 1011.9 |
| 20260510124902 | 23 | 49 | 4.8 | 8.0 | 0.00 | 0.00 | 0.00 | 94 | 1011.9 |
| 20260510124803 | 23 | 49 | 4.8 | 8.0 | 0.00 | 0.00 | 0.00 | 94 | 1012.0 |
| 20260510124702 | 23 | 49 | 4.8 | 8.0 | 0.00 | 0.00 | 0.00 | 94 | 1011.9 |
| 20260510124603 | 23 | 48 | 4.8 | 8.0 | 0.00 | 0.00 | 0.00 | 94 | 1011.9 |
| 20260510124501 | 23 | 72 | 4.8 | 8.0 | 0.00 | 0.00 | 0.00 | 94 | 1011.9 |
| 20260510124403 | 23 | 72 | 4.8 | 8.0 | 0.00 | 0.00 | 0.00 | 94 | 1011.8 |
| 20260510124304 | 23 | 72 | 4.8 | 8.0 | 0.00 | 0.00 | 0.00 | 94 | 1012.0 |
| 20260510124202 | 23 | 55 | 4.8 | 8.0 | 0.00 | 0.00 | 0.00 | 94 | 1011.9 |
| 20260510124104 | 23 | 55 | 4.8 | 8.0 | 0.00 | 0.00 | 0.00 | 94 | 1011.9 |
| 20260510124003 | 23 | 55 | 6.4 | 8.0 | 0.00 | 0.00 | 0.00 | 94 | 1011.9 |
| 20260510123902 | 23 | 55 | 4.8 | 8.0 | 0.00 | 0.00 | 0.00 | 94 | 1011.9 |
| 20260510123802 | 23 | 34 | 4.8 | 8.0 | 0.00 | 0.00 | 0.00 | 94 | 1011.8 |
| 20260510123702 | 23 | 34 | 4.8 | 8.0 | 0.00 | 0.00 | 0.00 | 94 | 1011.8 |
| 20260510123602 | 23 | 34 | 6.4 | 9.7 | 0.00 | 0.00 | 0.00 | 94 | 1011.7 |
| 20260510123502 | 23 | 35 | 6.4 | 9.7 | 0.00 | 0.00 | 0.00 | 94 | 1011.7 |
| 20260510123403 | 23 | 28 | 6.4 | 9.7 | 0.00 | 0.00 | 0.00 | 94 | 1011.8 |
| 20260510123302 | 23 | 28 | 6.4 | 9.7 | 0.00 | 0.00 | 0.00 | 94 | 1011.8 |
| 20260510123201 | 23 | 42 | 6.4 | 9.7 | 0.00 | 0.00 | 0.00 | 94 | 1011.7 |
| 20260510123102 | 23 | 32 | 6.4 | 9.7 | 0.00 | 0.00 | 0.00 | 94 | 1011.7 |
| 20260510123003 | 23 | 35 | 6.4 | 9.7 | 0.00 | 0.00 | 0.00 | 94 | 1011.6 |
| 20260510122903 | 23 | 35 | 6.4 | 9.7 | 0.00 | 0.00 | 0.00 | 94 | 1011.6 |
| 20260510122804 | 23 | 35 | 6.4 | 9.7 | 0.00 | 0.00 | 0.00 | 94 | 1011.6 |
| 20260510122704 | 23 | 35 | 6.4 | 9.7 | 0.00 | 0.00 | 0.00 | 94 | 1011.6 |
| 20260510122602 | 23 | 20 | 6.4 | 8.0 | 0.00 | 0.00 | 0.00 | 94 | 1011.6 |
| 20260510122502 | 23 | 20 | 6.4 | 8.0 | 0.00 | 0.00 | 0.00 | 94 | 1011.5 |
| 20260510122404 | 23 | 17 | 4.8 | 8.0 | 0.00 | 0.00 | 0.00 | 94 | 1011.5 |
| 20260510122306 | 23 | 16 | 4.8 | 8.0 | 0.00 | 0.00 | 0.00 | 94 | 1011.4 |
| 20260510122202 | 23 | 16 | 6.4 | 8.0 | 0.00 | 0.00 | 0.00 | 94 | 1011.4 |
| 20260510122102 | 23 | 25 | 4.8 | 8.0 | 0.00 | 0.00 | 0.00 | 94 | 1011.4 |
| 20260510122003 | 23 | 17 | 3.2 | 8.0 | 0.00 | 0.00 | 0.00 | 94 | 1011.4 |
| 20260510121903 | 23 | 17 | 4.8 | 8.0 | 0.00 | 0.00 | 0.00 | 94 | 1011.4 |
| 20260510121802 | 23 | 17 | 6.4 | 8.0 | 0.00 | 0.00 | 0.00 | 94 | 1011.3 |
| 20260510121704 | 23 | 20 | 4.8 | 8.0 | 0.00 | 0.00 | 0.00 | 94 | 1011.5 |
| 20260510121603 | 23 | 20 | 4.8 | 8.0 | 0.00 | 0.00 | 0.00 | 94 | 1011.4 |
| 20260510121503 | 23 | 18 | 3.2 | 8.0 | 0.00 | 0.00 | 0.00 | 94 | 1011.3 |
| 20260510121403 | 23 | 18 | 4.8 | 8.0 | 0.00 | 0.00 | 0.00 | 94 | 1011.3 |
| 20260510121303 | 23 | 7 | 4.8 | 8.0 | 0.00 | 0.00 | 0.00 | 94 | 1011.2 |
| 20260510121202 | 23 | 6 | 4.8 | 6.4 | 0.00 | 0.00 | 0.00 | 94 | 1011.2 |
| 20260510121102 | 23 | 6 | 4.8 | 6.4 | 0.00 | 0.00 | 0.00 | 93 | 1011.2 |
| 20260510121004 | 23 | 30 | 4.8 | 6.4 | 0.00 | 0.00 | 0.00 | 93 | 1011.2 |
| 20260510120902 | 23 | 23 | 4.8 | 6.4 | 0.00 | 0.00 | 0.00 | 93 | 1011.2 |
| 20260510120803 | 23 | 21 | 4.8 | 6.4 | 0.00 | 0.00 | 0.00 | 93 | 1011.1 |
| 20260510120703 | 23 | 28 | 4.8 | 6.4 | 0.00 | 0.00 | 0.00 | 93 | 1011.1 |
| 20260510120603 | 23 | 30 | 4.8 | 6.4 | 0.00 | 0.00 | 0.00 | 93 | 1011.1 |
| 20260510120502 | 23 | 28 | 4.8 | 6.4 | 0.00 | 0.00 | 0.00 | 93 | 1011.1 |
| 20260510120402 | 23 | 30 | 4.8 | 6.4 | 0.00 | 0.00 | 0.00 | 93 | 1011.1 |
| 20260510120304 | 23 | 30 | 4.8 | 6.4 | 0.00 | 0.00 | 0.00 | 93 | 1011.0 |
| 20260510120203 | 23 | 30 | 4.8 | 6.4 | 0.00 | 0.00 | 0.00 | 93 | 1011.0 |
| 20260510120004 | 23 | 30 | 4.8 | 6.4 | 0.00 | 0.00 | 0.00 | 93 | 1011.1 |
| 20260510115902 | 23 | 30 | 4.8 | 6.4 | 0.00 | 0.00 | 0.00 | 93 | 1010.9 |
| 20260510115802 | 23 | 30 | 3.2 | 6.4 | 0.00 | 0.00 | 0.00 | 93 | 1011.0 |
| 20260510115702 | 23 | 44 | 1.6 | 4.8 | 0.00 | 0.00 | 0.00 | 93 | 1011.0 |
| 20260510115603 | 23 | 44 | 3.2 | 4.8 | 0.00 | 0.00 | 0.00 | 93 | 1011.0 |
| 20260510115502 | 23 | 44 | 3.2 | 4.8 | 0.00 | 0.00 | 0.00 | 93 | 1011.0 |
| 20260510115402 | 23 | 99 | 1.6 | 4.8 | 0.00 | 0.00 | 0.00 | 93 | 1010.9 |
| 20260510115306 | 23 | 99 | 0.0 | 4.8 | 0.00 | 0.00 | 0.00 | 93 | 1011.0 |
| 20260510115202 | 23 | 99 | 0.0 | 4.8 | 0.00 | 0.00 | 0.00 | 93 | 1010.9 |
| 20260510115102 | 23 | 99 | 0.0 | 4.8 | 0.00 | 0.00 | 0.00 | 93 | 1010.8 |
| 20260510115004 | 23 | 99 | 0.0 | 4.8 | 0.00 | 0.00 | 0.00 | 94 | 1010.9 |
| 20260510114902 | 23 | 99 | 0.0 | 4.8 | 0.00 | 0.00 | 0.00 | 94 | 1010.9 |
| 20260510114803 | 23 | 99 | 0.0 | 4.8 | 0.00 | 0.00 | 0.00 | 94 | 1010.9 |
| 20260510114703 | 23 | 99 | 0.0 | 4.8 | 0.00 | 0.00 | 0.00 | 94 | 1010.8 |
| 20260510114604 | 23 | 99 | 1.6 | 4.8 | 0.00 | 0.00 | 0.00 | 93 | 1010.8 |
| 20260510114503 | 23 | 99 | 1.6 | 4.8 | 0.00 | 0.00 | 0.00 | 94 | 1010.8 |
| 20260510114402 | 23 | 100 | 0.0 | 4.8 | 0.00 | 0.00 | 0.00 | 94 | 1010.8 |
| 20260510114303 | 23 | 125 | 0.0 | 4.8 | 0.00 | 0.00 | 0.00 | 94 | 1010.8 |
| 20260510114202 | 23 | 125 | 0.0 | 4.8 | 0.00 | 0.00 | 0.00 | 94 | 1010.6 |
| 20260510114102 | 23 | 125 | 0.0 | 4.8 | 0.00 | 0.00 | 0.00 | 94 | 1010.6 |
| 20260510114003 | 23 | 125 | 0.0 | 4.8 | 0.00 | 0.00 | 0.00 | 94 | 1010.6 |
| 20260510113903 | 23 | 125 | 1.6 | 4.8 | 0.00 | 0.00 | 0.00 | 94 | 1010.6 |
| 20260510113802 | 23 | 125 | 3.2 | 4.8 | 0.00 | 0.00 | 0.00 | 94 | 1010.5 |
| 20260510113704 | 23 | 125 | 3.2 | 4.8 | 0.00 | 0.00 | 0.00 | 94 | 1010.4 |
| 20260510113602 | 23 | 117 | 1.6 | 4.8 | 0.00 | 0.00 | 0.00 | 94 | 1010.4 |
| 20260510113502 | 23 | 125 | 0.0 | 4.8 | 0.00 | 0.00 | 0.00 | 94 | 1010.4 |
| 20260510113402 | 23 | 125 | 1.6 | 6.4 | 0.00 | 0.00 | 0.00 | 94 | 1010.3 |
| 20260510113304 | 23 | 125 | 3.2 | 6.4 | 0.00 | 0.00 | 0.00 | 94 | 1010.3 |
| 20260510113203 | 23 | 125 | 1.6 | 6.4 | 0.00 | 0.00 | 0.00 | 94 | 1010.2 |
| 20260510113102 | 23 | 133 | 1.6 | 6.4 | 0.00 | 0.00 | 0.00 | 94 | 1010.2 |
| 20260510113003 | 23 | 138 | 1.6 | 8.0 | 0.00 | 0.00 | 0.00 | 94 | 1010.2 |
| 20260510112904 | 23 | 138 | 3.2 | 8.0 | 0.00 | 0.00 | 0.00 | 94 | 1010.1 |
| 20260510112802 | 23 | 138 | 3.2 | 8.0 | 0.00 | 0.00 | 0.00 | 94 | 1010.2 |
| 20260510112702 | 23 | 107 | 1.6 | 8.0 | 0.00 | 0.00 | 0.00 | 94 | 1010.1 |
| 20260510112603 | 23 | 138 | 1.6 | 8.0 | 0.00 | 0.00 | 0.00 | 94 | 1010.1 |
| 20260510112504 | 23 | 145 | 1.6 | 8.0 | 0.00 | 0.00 | 0.00 | 94 | 1010.1 |
| 20260510112404 | 23 | 140 | 1.6 | 8.0 | 0.00 | 0.00 | 0.00 | 94 | 1010.1 |
| 20260510112305 | 23 | 140 | 4.8 | 8.0 | 0.00 | 0.00 | 0.00 | 94 | 1010.0 |
| 20260510112202 | 23 | 149 | 3.2 | 8.0 | 0.00 | 0.00 | 0.00 | 94 | 1010.0 |
| 20260510112103 | 23 | 152 | 1.6 | 8.0 | 0.00 | 0.00 | 0.00 | 94 | 1010.0 |
| 20260510112002 | 23 | 149 | 0.0 | 6.4 | 0.00 | 0.00 | 0.00 | 94 | 1010.0 |
| 20260510111903 | 23 | 133 | 0.0 | 6.4 | 0.00 | 0.00 | 0.00 | 94 | 1010.0 |
| 20260510111802 | 23 | 133 | 1.6 | 6.4 | 0.00 | 0.00 | 0.00 | 94 | 1009.9 |
| 20260510111703 | 23 | 133 | 1.6 | 6.4 | 0.00 | 0.00 | 0.00 | 94 | 1009.8 |
| 20260510111604 | 23 | 138 | 0.0 | 6.4 | 0.00 | 0.00 | 0.00 | 94 | 1009.9 |
| 20260510111504 | 23 | 138 | 0.0 | 6.4 | 0.00 | 0.00 | 0.00 | 94 | 1009.9 |
| 20260510111402 | 23 | 140 | 0.0 | 6.4 | 0.00 | 0.00 | 0.00 | 94 | 1009.9 |
| 20260510111302 | 23 | 140 | 3.2 | 8.0 | 0.00 | 0.00 | 0.00 | 94 | 1009.9 |
| 20260510111203 | 23 | 140 | 3.2 | 8.0 | 0.00 | 0.00 | 0.00 | 94 | 1009.9 |
| 20260510111103 | 23 | 161 | 3.2 | 8.0 | 0.00 | 0.00 | 0.00 | 94 | 1009.8 |
| 20260510111002 | 23 | 164 | 3.2 | 8.0 | 0.00 | 0.00 | 0.00 | 94 | 1009.9 |
| 20260510110903 | 23 | 134 | 3.2 | 8.0 | 0.00 | 0.00 | 0.00 | 94 | 1009.7 |
| 20260510110802 | 23 | 149 | 3.2 | 8.0 | 0.00 | 0.00 | 0.00 | 94 | 1009.8 |
| 20260510110702 | 23 | 141 | 3.2 | 8.0 | 0.00 | 0.00 | 0.00 | 94 | 1009.8 |
| 20260510110602 | 23 | 158 | 3.2 | 8.0 | 0.00 | 0.00 | 0.00 | 94 | 1009.8 |
| 20260510110505 | 23 | 83 | 4.8 | 8.0 | 0.00 | 0.00 | 0.00 | 94 | 1009.7 |
| 20260510110402 | 23 | 171 | 3.2 | 8.0 | 0.00 | 0.00 | 0.00 | 94 | 1009.7 |
| 20260510110302 | 23 | 128 | 1.6 | 6.4 | 0.00 | 0.00 | 0.00 | 94 | 1009.7 |
| 20260510110203 | 23 | 140 | 3.2 | 6.4 | 0.00 | 0.00 | 0.00 | 95 | 1009.6 |
| 20260510110104 | 23 | 135 | 3.2 | 6.4 | 0.00 | 0.00 | 0.00 | 95 | 1009.7 |
| 20260510110002 | 23 | 135 | 3.2 | 6.4 | 0.00 | 0.00 | 0.00 | 95 | 1009.6 |
| 20260510105903 | 23 | 162 | 3.2 | 6.4 | 0.00 | 0.00 | 0.00 | 95 | 1009.6 |
| 20260510105802 | 23 | 145 | 1.6 | 6.4 | 0.00 | 0.00 | 0.00 | 95 | 1009.6 |
| 20260510105701 | 23 | 135 | 1.6 | 8.0 | 0.00 | 0.00 | 0.00 | 95 | 1009.5 |
| 20260510105603 | 23 | 152 | 3.2 | 8.0 | 0.00 | 0.00 | 0.00 | 95 | 1009.5 |
| 20260510105504 | 23 | 131 | 3.2 | 8.0 | 0.00 | 0.00 | 0.00 | 95 | 1009.5 |
| 20260510105402 | 23 | 103 | 3.2 | 8.0 | 0.00 | 0.00 | 0.00 | 95 | 1009.4 |
| 20260510105306 | 23 | 168 | 3.2 | 8.0 | 0.00 | 0.00 | 0.00 | 95 | 1009.4 |
| 20260510105203 | 23 | 168 | 3.2 | 8.0 | 0.00 | 0.00 | 0.00 | 95 | 1009.3 |
| 20260510105102 | 23 | 89 | 3.2 | 8.0 | 0.00 | 0.00 | 0.00 | 95 | 1009.4 |
| 20260510105002 | 23 | 158 | 3.2 | 8.0 | 0.00 | 0.00 | 0.00 | 95 | 1009.4 |
| 20260510104902 | 23 | 130 | 3.2 | 8.0 | 0.00 | 0.00 | 0.00 | 95 | 1009.4 |
| 20260510104803 | 23 | 190 | 4.8 | 8.0 | 0.00 | 0.00 | 0.00 | 95 | 1009.4 |
| 20260510104702 | 23 | 159 | 3.2 | 6.4 | 0.00 | 0.00 | 0.00 | 95 | 1009.4 |
| 20260510104603 | 23 | 186 | 3.2 | 6.4 | 0.00 | 0.00 | 0.00 | 95 | 1009.4 |
| 20260510104504 | 23 | 121 | 3.2 | 6.4 | 0.00 | 0.00 | 0.00 | 95 | 1009.4 |
| 20260510104402 | 23 | 192 | 3.2 | 6.4 | 0.00 | 0.00 | 0.00 | 95 | 1009.4 |
| 20260510104302 | 23 | 190 | 1.6 | 6.4 | 0.00 | 0.00 | 0.00 | 95 | 1009.4 |
| 20260510104202 | 23 | 162 | 3.2 | 6.4 | 0.00 | 0.00 | 0.00 | 95 | 1009.4 |
| 20260510104104 | 23 | 162 | 3.2 | 6.4 | 0.00 | 0.00 | 0.00 | 95 | 1009.3 |
| 20260510104002 | 23 | 118 | 3.2 | 6.4 | 0.00 | 0.00 | 0.00 | 95 | 1009.3 |
| 20260510103901 | 23 | 145 | 1.6 | 6.4 | 0.00 | 0.00 | 0.00 | 95 | 1009.3 |
| 20260510103804 | 23 | 152 | 1.6 | 6.4 | 0.00 | 0.00 | 0.00 | 95 | 1009.3 |
| 20260510103702 | 23 | 137 | 1.6 | 6.4 | 0.00 | 0.00 | 0.00 | 95 | 1009.3 |
| 20260510103601 | 23 | 135 | 3.2 | 6.4 | 0.00 | 0.00 | 0.00 | 95 | 1009.3 |
| 20260510103503 | 23 | 118 | 1.6 | 6.4 | 0.00 | 0.00 | 0.00 | 95 | 1009.4 |
| 20260510103403 | 23 | 110 | 0.0 | 6.4 | 0.00 | 0.00 | 0.00 | 95 | 1009.3 |
| 20260510103303 | 23 | 110 | 1.6 | 9.7 | 0.00 | 0.00 | 0.00 | 95 | 1009.3 |
| 20260510103202 | 23 | 110 | 3.2 | 9.7 | 0.00 | 0.00 | 0.00 | 95 | 1009.4 |
| 20260510103103 | 23 | 145 | 3.2 | 9.7 | 0.00 | 0.00 | 0.00 | 95 | 1009.4 |
| 20260510103004 | 23 | 102 | 3.2 | 9.7 | 0.00 | 0.00 | 0.00 | 95 | 1009.3 |
| 20260510102902 | 23 | 131 | 3.2 | 9.7 | 0.00 | 0.00 | 0.00 | 95 | 1009.4 |
| 20260510102803 | 23 | 121 | 3.2 | 9.7 | 0.00 | 0.00 | 0.00 | 95 | 1009.4 |
| 20260510102702 | 23 | 157 | 3.2 | 9.7 | 0.00 | 0.00 | 0.00 | 95 | 1009.4 |
| 20260510102603 | 23 | 131 | 3.2 | 9.7 | 0.00 | 0.00 | 0.00 | 95 | 1009.4 |
| 20260510102502 | 23 | 152 | 4.8 | 9.7 | 0.00 | 0.00 | 0.00 | 95 | 1009.3 |
| 20260510102404 | 23 | 149 | 3.2 | 9.7 | 0.00 | 0.00 | 0.00 | 95 | 1009.3 |
| 20260510102301 | 23 | 113 | 3.2 | 9.7 | 0.00 | 0.00 | 0.00 | 95 | 1009.4 |
| 20260510102202 | 23 | 121 | 3.2 | 9.7 | 0.00 | 0.00 | 0.00 | 95 | 1009.4 |
| 20260510102104 | 23 | 125 | 4.8 | 9.7 | 0.00 | 0.00 | 0.00 | 95 | 1009.3 |
| 20260510102004 | 23 | 157 | 6.4 | 9.7 | 0.00 | 0.00 | 0.00 | 95 | 1009.3 |
| 20260510101901 | 23 | 161 | 4.8 | 9.7 | 0.00 | 0.00 | 0.00 | 95 | 1009.3 |
| 20260510101803 | 23 | 141 | 3.2 | 9.7 | 0.00 | 0.00 | 0.00 | 95 | 1009.3 |
| 20260510101703 | 23 | 189 | 1.6 | 9.7 | 0.00 | 0.00 | 0.00 | 95 | 1009.3 |
| 20260510101602 | 23 | 142 | 3.2 | 9.7 | 0.00 | 0.00 | 0.00 | 95 | 1009.3 |
| 20260510101502 | 23 | 158 | 3.2 | 9.7 | 0.00 | 0.00 | 0.00 | 95 | 1009.2 |
| 20260510101403 | 23 | 175 | 3.2 | 9.7 | 0.00 | 0.00 | 0.00 | 95 | 1009.2 |
| 20260510101301 | 23 | 144 | 3.2 | 9.7 | 0.00 | 0.00 | 0.00 | 95 | 1009.3 |
| 20260510101202 | 23 | 140 | 4.8 | 9.7 | 0.00 | 0.00 | 0.00 | 95 | 1009.3 |
| 20260510101103 | 23 | 127 | 3.2 | 9.7 | 0.00 | 0.00 | 0.00 | 95 | 1009.3 |
| 20260510101004 | 23 | 179 | 3.2 | 9.7 | 0.00 | 0.00 | 0.00 | 95 | 1009.3 |
| 20260510100902 | 23 | 114 | 3.2 | 9.7 | 0.00 | 0.00 | 0.00 | 95 | 1009.3 |
| 20260510100802 | 23 | 133 | 3.2 | 9.7 | 0.00 | 0.00 | 0.00 | 95 | 1009.3 |
| 20260510100704 | 23 | 221 | 3.2 | 9.7 | 0.00 | 0.00 | 0.00 | 95 | 1009.3 |
| 20260510100602 | 23 | 131 | 4.8 | 9.7 | 0.00 | 0.00 | 0.00 | 95 | 1009.3 |
| 20260510100503 | 23 | 159 | 4.8 | 9.7 | 0.00 | 0.00 | 0.00 | 95 | 1009.2 |
| 20260510100405 | 23 | 200 | 4.8 | 9.7 | 0.00 | 0.00 | 0.00 | 95 | 1009.3 |
| 20260510100302 | 23 | 107 | 4.8 | 9.7 | 0.00 | 0.00 | 0.00 | 95 | 1009.3 |
| 20260510100202 | 23 | 196 | 6.4 | 9.7 | 0.00 | 0.00 | 0.00 | 95 | 1009.2 |
| 20260510100005 | 23 | 165 | 3.2 | 9.7 | 0.00 | 0.00 | 0.00 | 95 | 1009.2 |
| 20260510095904 | 23 | 202 | 4.8 | 14.5 | 0.00 | 0.00 | 0.00 | 96 | 1009.3 |
| 20260510095803 | 23 | 49 | 4.8 | 14.5 | 0.00 | 0.00 | 0.00 | 96 | 1009.3 |
| 20260510095702 | 23 | 137 | 3.2 | 14.5 | 0.00 | 0.00 | 0.00 | 96 | 1009.2 |
| 20260510095603 | 23 | 353 | 3.2 | 14.5 | 0.00 | 0.00 | 0.00 | 96 | 1009.3 |
| 20260510095505 | 23 | 125 | 3.2 | 14.5 | 0.00 | 0.00 | 0.00 | 96 | 1009.3 |
| 20260510095402 | 23 | 118 | 4.8 | 14.5 | 0.00 | 0.00 | 0.00 | 96 | 1009.3 |
| 20260510095305 | 23 | 134 | 4.8 | 14.5 | 0.00 | 0.00 | 0.00 | 96 | 1009.3 |
| 20260510095202 | 23 | 141 | 4.8 | 14.5 | 0.00 | 0.00 | 0.00 | 96 | 1009.2 |
| 20260510095103 | 23 | 147 | 8.0 | 14.5 | 0.00 | 0.00 | 0.00 | 96 | 1009.2 |
| 20260510095004 | 23 | 162 | 6.4 | 14.5 | 0.00 | 0.00 | 0.00 | 96 | 1009.2 |
| 20260510094901 | 23 | 151 | 3.2 | 9.7 | 0.00 | 0.00 | 0.00 | 96 | 1009.3 |
| 20260510094803 | 23 | 114 | 3.2 | 9.7 | 0.00 | 0.00 | 0.00 | 96 | 1009.2 |
| 20260510094703 | 23 | 175 | 3.2 | 9.7 | 0.00 | 0.00 | 0.00 | 96 | 1009.2 |
| 20260510094602 | 23 | 175 | 3.2 | 9.7 | 0.00 | 0.00 | 0.00 | 96 | 1009.2 |
| 20260510094502 | 23 | 164 | 3.2 | 9.7 | 0.00 | 0.00 | 0.00 | 96 | 1009.2 |
| 20260510094403 | 23 | 138 | 4.8 | 9.7 | 0.00 | 0.00 | 0.00 | 96 | 1009.2 |
| 20260510094304 | 23 | 144 | 4.8 | 9.7 | 0.00 | 0.00 | 0.00 | 96 | 1009.1 |
| 20260510094202 | 23 | 137 | 6.4 | 9.7 | 0.00 | 0.00 | 0.00 | 96 | 1009.1 |
| 20260510094102 | 23 | 154 | 4.8 | 9.7 | 0.00 | 0.00 | 0.00 | 96 | 1009.1 |
| 20260510094003 | 23 | 212 | 3.2 | 9.7 | 0.00 | 0.00 | 0.00 | 96 | 1009.2 |
| 20260510093902 | 23 | 147 | 3.2 | 9.7 | 0.00 | 0.00 | 0.00 | 96 | 1009.2 |
| 20260510093802 | 23 | 137 | 3.2 | 9.7 | 0.00 | 0.00 | 0.00 | 96 | 1009.1 |
| 20260510093702 | 23 | 147 | 3.2 | 16.1 | 0.00 | 0.00 | 0.00 | 96 | 1009.2 |
| 20260510093603 | 23 | 138 | 4.8 | 16.1 | 0.00 | 0.00 | 0.00 | 96 | 1009.1 |
| 20260510093503 | 23 | 142 | 6.4 | 16.1 | 0.00 | 0.00 | 0.00 | 96 | 1009.1 |
| 20260510093402 | 23 | 133 | 6.4 | 16.1 | 0.00 | 0.00 | 0.00 | 96 | 1009.1 |
| 20260510093303 | 23 | 171 | 4.8 | 16.1 | 0.00 | 0.00 | 0.00 | 96 | 1009.0 |
| 20260510093202 | 23 | 172 | 4.8 | 16.1 | 0.00 | 0.00 | 0.00 | 96 | 1009.1 |
| 20260510093103 | 23 | 171 | 6.4 | 16.1 | 0.00 | 0.00 | 0.00 | 96 | 1009.0 |
| 20260510093004 | 23 | 171 | 6.4 | 16.1 | 0.00 | 0.00 | 0.00 | 96 | 1009.0 |
| 20260510092903 | 23 | 171 | 6.4 | 16.1 | 0.00 | 0.00 | 0.00 | 96 | 1009.1 |
| 20260510092803 | 23 | 171 | 6.4 | 16.1 | 0.00 | 0.00 | 0.00 | 96 | 1009.0 |
| 20260510092702 | 22 | 125 | 3.2 | 11.3 | 0.00 | 0.00 | 0.00 | 96 | 1009.0 |
| 20260510092601 | 22 | 197 | 4.8 | 11.3 | 0.00 | 0.00 | 0.00 | 96 | 1009.0 |
| 20260510092503 | 22 | 147 | 6.4 | 11.3 | 0.00 | 0.00 | 0.00 | 96 | 1009.0 |
| 20260510092402 | 22 | 147 | 4.8 | 9.7 | 0.00 | 0.00 | 0.00 | 96 | 1009.0 |
| 20260510092306 | 22 | 116 | 3.2 | 8.0 | 0.00 | 0.00 | 0.00 | 96 | 1008.9 |
| 20260510092203 | 22 | 157 | 4.8 | 6.4 | 0.00 | 0.00 | 0.00 | 96 | 1008.9 |
| 20260510092102 | 22 | 148 | 4.8 | 6.4 | 0.00 | 0.00 | 0.00 | 96 | 1008.9 |
| 20260510092002 | 22 | 93 | 3.2 | 6.4 | 0.00 | 0.00 | 0.00 | 96 | 1008.9 |
| 20260510091903 | 22 | 148 | 3.2 | 6.4 | 0.00 | 0.00 | 0.00 | 96 | 1009.0 |
| 20260510091804 | 22 | 155 | 3.2 | 4.8 | 0.00 | 0.00 | 0.00 | 96 | 1008.9 |
| 20260510091703 | 22 | 137 | 3.2 | 4.8 | 0.00 | 0.00 | 0.00 | 96 | 1008.9 |
| 20260510091604 | 22 | 158 | 1.6 | 4.8 | 0.00 | 0.00 | 0.00 | 95 | 1009.0 |
| 20260510091502 | 22 | 128 | 3.2 | 4.8 | 0.00 | 0.00 | 0.00 | 95 | 1008.9 |
| 20260510091402 | 22 | 127 | 1.6 | 4.8 | 0.00 | 0.00 | 0.00 | 95 | 1009.0 |
| 20260510091304 | 22 | 114 | 1.6 | 3.2 | 0.00 | 0.00 | 0.00 | 95 | 1008.9 |
| 20260510091203 | 22 | 113 | 1.6 | 4.8 | 0.00 | 0.00 | 0.00 | 95 | 1009.0 |
| 20260510091103 | 22 | 113 | 1.6 | 4.8 | 0.00 | 0.00 | 0.00 | 95 | 1009.0 |
| 20260510091004 | 22 | 113 | 1.6 | 4.8 | 0.00 | 0.00 | 0.00 | 95 | 1009.0 |
| 20260510090904 | 22 | 113 | 1.6 | 8.0 | 0.00 | 0.00 | 0.00 | 95 | 1009.0 |
| 20260510090803 | 22 | 113 | 1.6 | 8.0 | 0.00 | 0.00 | 0.00 | 95 | 1009.0 |
| 20260510090702 | 22 | 113 | 0.0 | 8.0 | 0.00 | 0.00 | 0.00 | 95 | 1009.0 |
| 20260510090604 | 22 | 113 | 0.0 | 8.0 | 0.00 | 0.00 | 0.00 | 95 | 1008.9 |
| 20260510090505 | 22 | 113 | 1.6 | 8.0 | 0.00 | 0.00 | 0.00 | 96 | 1009.0 |
| 20260510090402 | 22 | 113 | 3.2 | 8.0 | 0.00 | 0.00 | 0.00 | 95 | 1009.0 |
| 20260510090303 | 22 | 113 | 3.2 | 8.0 | 0.00 | 0.00 | 0.00 | 95 | 1009.0 |
| 20260510090203 | 22 | 154 | 3.2 | 8.0 | 0.00 | 0.00 | 0.00 | 95 | 1009.0 |
| 20260510090003 | 22 | 144 | 4.8 | 8.0 | 0.00 | 0.00 | 0.00 | 96 | 1008.9 |
| 20260510085903 | 22 | 165 | 4.8 | 8.0 | 0.00 | 0.00 | 0.00 | 96 | 1008.9 |
| 20260510085802 | 22 | 169 | 3.2 | 8.0 | 0.00 | 0.00 | 0.00 | 95 | 1009.0 |
| 20260510085701 | 22 | 144 | 3.2 | 8.0 | 0.00 | 0.00 | 0.00 | 95 | 1008.9 |
| 20260510085601 | 22 | 134 | 3.2 | 8.0 | 0.00 | 0.00 | 0.00 | 95 | 1008.9 |
| 20260510085503 | 22 | 124 | 3.2 | 8.0 | 0.00 | 0.00 | 0.00 | 95 | 1008.9 |
| 20260510085403 | 22 | 166 | 3.2 | 9.7 | 0.00 | 0.00 | 0.00 | 96 | 1008.9 |
| 20260510085306 | 22 | 145 | 3.2 | 9.7 | 0.00 | 0.00 | 0.00 | 95 | 1008.9 |
| 20260510085203 | 22 | 128 | 3.2 | 9.7 | 0.00 | 0.00 | 0.00 | 95 | 1008.9 |
| 20260510085103 | 22 | 149 | 3.2 | 9.7 | 0.00 | 0.00 | 0.00 | 95 | 1009.0 |
| 20260510085003 | 22 | 147 | 3.2 | 11.3 | 0.00 | 0.00 | 0.00 | 95 | 1008.9 |
| 20260510084903 | 22 | 131 | 3.2 | 11.3 | 0.00 | 0.00 | 0.00 | 95 | 1008.9 |
| 20260510084803 | 22 | 135 | 3.2 | 11.3 | 0.00 | 0.00 | 0.00 | 95 | 1008.9 |
| 20260510084703 | 22 | 151 | 4.8 | 11.3 | 0.00 | 0.00 | 0.00 | 95 | 1008.9 |
| 20260510084603 | 22 | 155 | 4.8 | 11.3 | 0.00 | 0.00 | 0.00 | 95 | 1008.9 |
| 20260510084504 | 22 | 169 | 3.2 | 11.3 | 0.00 | 0.00 | 0.00 | 95 | 1008.9 |
| 20260510084401 | 22 | 116 | 3.2 | 11.3 | 0.00 | 0.00 | 0.00 | 95 | 1008.9 |
| 20260510084302 | 22 | 133 | 3.2 | 11.3 | 0.00 | 0.00 | 0.00 | 95 | 1008.9 |
| 20260510084203 | 22 | 121 | 4.8 | 11.3 | 0.00 | 0.00 | 0.00 | 95 | 1008.9 |
| 20260510084104 | 22 | 133 | 4.8 | 11.3 | 0.00 | 0.00 | 0.00 | 95 | 1008.9 |
| 20260510084002 | 22 | 173 | 4.8 | 8.0 | 0.00 | 0.00 | 0.00 | 95 | 1009.0 |
| 20260510083902 | 22 | 130 | 3.2 | 8.0 | 0.00 | 0.00 | 0.00 | 95 | 1008.9 |
| 20260510083803 | 22 | 118 | 3.2 | 8.0 | 0.00 | 0.00 | 0.00 | 95 | 1008.9 |
| 20260510083702 | 22 | 164 | 4.8 | 8.0 | 0.00 | 0.00 | 0.00 | 95 | 1008.9 |
| 20260510083602 | 22 | 173 | 3.2 | 8.0 | 0.00 | 0.00 | 0.00 | 95 | 1008.8 |
| 20260510083502 | 22 | 114 | 4.8 | 8.0 | 0.00 | 0.00 | 0.00 | 95 | 1008.9 |
| 20260510083402 | 22 | 142 | 4.8 | 8.0 | 0.00 | 0.00 | 0.00 | 95 | 1008.9 |
| 20260510083304 | 22 | 158 | 4.8 | 6.4 | 0.00 | 0.00 | 0.00 | 95 | 1008.9 |
| 20260510083203 | 22 | 145 | 3.2 | 6.4 | 0.00 | 0.00 | 0.00 | 95 | 1008.9 |
| 20260510083102 | 22 | 158 | 3.2 | 6.4 | 0.00 | 0.00 | 0.00 | 95 | 1008.9 |
| 20260510083006 | 22 | 145 | 3.2 | 6.4 | 0.00 | 0.00 | 0.00 | 95 | 1008.9 |
| 20260510082904 | 22 | 145 | 3.2 | 6.4 | 0.00 | 0.00 | 0.00 | 95 | 1008.9 |
| 20260510082803 | 22 | 128 | 3.2 | 6.4 | 0.00 | 0.00 | 0.00 | 95 | 1009.0 |
| 20260510082703 | 22 | 138 | 3.2 | 6.4 | 0.00 | 0.00 | 0.00 | 95 | 1008.9 |
| 20260510082602 | 22 | 144 | 3.2 | 8.0 | 0.00 | 0.00 | 0.00 | 95 | 1009.0 |
| 20260510082503 | 22 | 155 | 3.2 | 8.0 | 0.00 | 0.00 | 0.00 | 95 | 1009.0 |
| 20260510082402 | 22 | 113 | 1.6 | 8.0 | 0.00 | 0.00 | 0.00 | 95 | 1009.0 |
| 20260510082306 | 22 | 117 | 3.2 | 8.0 | 0.00 | 0.00 | 0.00 | 95 | 1009.0 |
| 20260510082203 | 22 | 117 | 3.2 | 8.0 | 0.00 | 0.00 | 0.00 | 95 | 1009.0 |
| 20260510082104 | 22 | 128 | 3.2 | 8.0 | 0.00 | 0.00 | 0.00 | 95 | 1009.0 |
| 20260510082002 | 22 | 145 | 3.2 | 8.0 | 0.00 | 0.00 | 0.00 | 95 | 1009.0 |
| 20260510081902 | 22 | 176 | 3.2 | 8.0 | 0.00 | 0.00 | 0.00 | 95 | 1009.0 |
| 20260510081803 | 22 | 166 | 3.2 | 8.0 | 0.00 | 0.00 | 0.00 | 95 | 1009.1 |
| 20260510081702 | 22 | 169 | 3.2 | 8.0 | 0.00 | 0.00 | 0.00 | 95 | 1009.1 |
| 20260510081602 | 22 | 190 | 1.6 | 4.8 | 0.00 | 0.00 | 0.00 | 95 | 1009.0 |
| 20260510081502 | 22 | 172 | 0.0 | 4.8 | 0.00 | 0.00 | 0.00 | 95 | 1009.1 |
| 20260510081402 | 22 | 110 | 0.0 | 0.0 | 0.00 | 0.00 | 0.00 | 95 | 1009.1 |
| 20260510081303 | 22 | 169 | 0.0 | 0.0 | 0.00 | 0.00 | 0.00 | 95 | 1009.1 |
| 20260510081202 | 22 | 175 | 0.0 | 0.0 | 0.00 | 0.00 | 0.00 | 95 | 1009.1 |
| 20260510081103 | 22 | 175 | 0.0 | 0.0 | 0.00 | 0.00 | 0.00 | 95 | 1009.1 |
| 20260510081002 | 22 | 189 | 0.0 | 0.0 | 0.00 | 0.00 | 0.00 | 95 | 1009.1 |
| 20260510080902 | 22 | 189 | 0.0 | 0.0 | 0.00 | 0.00 | 0.00 | 95 | 1009.1 |
| 20260510080802 | 22 | 189 | 0.0 | 0.0 | 0.00 | 0.00 | 0.00 | 95 | 1009.2 |
| 20260510080703 | 22 | 189 | 0.0 | 0.0 | 0.00 | 0.00 | 0.00 | 95 | 1009.2 |
| 20260510080602 | 22 | 189 | 0.0 | 0.0 | 0.00 | 0.00 | 0.00 | 95 | 1009.1 |
| 20260510080502 | 22 | 189 | 0.0 | 0.0 | 0.00 | 0.00 | 0.00 | 95 | 1009.2 |
| 20260510080403 | 22 | 189 | 0.0 | 0.0 | 0.00 | 0.00 | 0.00 | 95 | 1009.2 |
| 20260510080302 | 22 | 189 | 0.0 | 0.0 | 0.00 | 0.00 | 0.00 | 95 | 1009.2 |
| 20260510080202 | 22 | 189 | 0.0 | 0.0 | 0.00 | 0.00 | 0.00 | 94 | 1009.2 |
| 20260510080004 | 23 | 189 | 0.0 | 0.0 | 0.00 | 0.00 | 0.00 | 95 | 1009.2 |
| 20260510075901 | 23 | 189 | 0.0 | 0.0 | 0.00 | 0.00 | 0.00 | 95 | 1009.2 |
| 20260510075802 | 23 | 189 | 0.0 | 0.0 | 0.00 | 0.00 | 0.00 | 95 | 1009.1 |
| 20260510075704 | 23 | 189 | 0.0 | 0.0 | 0.00 | 0.00 | 0.00 | 95 | 1009.1 |
| 20260510075603 | 23 | 189 | 0.0 | 0.0 | 0.00 | 0.00 | 0.00 | 95 | 1009.2 |
| 20260510075502 | 22 | 189 | 0.0 | 0.0 | 0.00 | 0.00 | 0.00 | 94 | 1009.2 |
| 20260510075403 | 22 | 189 | 0.0 | 0.0 | 0.00 | 0.00 | 0.00 | 94 | 1009.2 |
| 20260510075305 | 23 | 189 | 0.0 | 0.0 | 0.00 | 0.00 | 0.00 | 95 | 1009.2 |
| 20260510075202 | 23 | 189 | 0.0 | 0.0 | 0.00 | 0.00 | 0.00 | 95 | 1009.2 |
| 20260510075103 | 23 | 189 | 0.0 | 0.0 | 0.00 | 0.00 | 0.00 | 95 | 1009.1 |
| 20260510075002 | 23 | 189 | 0.0 | 0.0 | 0.00 | 0.00 | 0.00 | 95 | 1009.2 |
| 20260510074902 | 23 | 189 | 0.0 | 0.0 | 0.00 | 0.00 | 0.00 | 95 | 1009.2 |
| 20260510074802 | 23 | 189 | 0.0 | 0.0 | 0.00 | 0.00 | 0.00 | 95 | 1009.2 |
| 20260510074703 | 23 | 189 | 0.0 | 0.0 | 0.00 | 0.00 | 0.00 | 95 | 1009.1 |
| 20260510074603 | 23 | 189 | 0.0 | 0.0 | 0.00 | 0.00 | 0.00 | 94 | 1009.2 |
| 20260510074502 | 23 | 189 | 0.0 | 0.0 | 0.00 | 0.00 | 0.00 | 95 | 1009.1 |
| 20260510074403 | 23 | 189 | 0.0 | 0.0 | 0.00 | 0.00 | 0.00 | 95 | 1009.1 |
| 20260510074303 | 23 | 189 | 0.0 | 0.0 | 0.00 | 0.00 | 0.00 | 94 | 1009.1 |
| 20260510074202 | 23 | 189 | 0.0 | 0.0 | 0.00 | 0.00 | 0.00 | 94 | 1009.1 |
| 20260510074102 | 23 | 189 | 0.0 | 0.0 | 0.00 | 0.00 | 0.00 | 94 | 1009.1 |
| 20260510074004 | 23 | 189 | 0.0 | 0.0 | 0.00 | 0.00 | 0.00 | 94 | 1009.1 |
| 20260510073902 | 23 | 189 | 0.0 | 0.0 | 0.00 | 0.00 | 0.00 | 94 | 1009.1 |
| 20260510073802 | 23 | 189 | 0.0 | 0.0 | 0.00 | 0.00 | 0.00 | 95 | 1009.2 |
| 20260510073703 | 23 | 189 | 0.0 | 0.0 | 0.00 | 0.00 | 0.00 | 95 | 1009.1 |
| 20260510073603 | 23 | 189 | 0.0 | 0.0 | 0.00 | 0.00 | 0.00 | 94 | 1009.1 |
| 20260510073503 | 23 | 190 | 0.0 | 0.0 | 0.00 | 0.00 | 0.00 | 94 | 1009.1 |
| 20260510073402 | 23 | 190 | 0.0 | 0.0 | 0.00 | 0.00 | 0.00 | 94 | 1009.1 |
| 20260510073302 | 23 | 190 | 0.0 | 0.0 | 0.00 | 0.00 | 0.00 | 94 | 1009.1 |
| 20260510073203 | 23 | 190 | 0.0 | 0.0 | 0.00 | 0.00 | 0.00 | 94 | 1009.2 |
| 20260510073101 | 23 | 190 | 0.0 | 0.0 | 0.00 | 0.00 | 0.00 | 94 | 1009.2 |
| 20260510073004 | 23 | 190 | 0.0 | 0.0 | 0.00 | 0.00 | 0.00 | 94 | 1009.1 |
| 20260510072902 | 23 | 190 | 0.0 | 1.6 | 0.00 | 0.00 | 0.00 | 94 | 1009.1 |
| 20260510072802 | 23 | 190 | 0.0 | 1.6 | 0.00 | 0.00 | 0.00 | 94 | 1009.1 |
| 20260510072703 | 23 | 190 | 0.0 | 1.6 | 0.00 | 0.00 | 0.00 | 94 | 1009.1 |
| 20260510072602 | 23 | 190 | 0.0 | 3.2 | 0.00 | 0.00 | 0.00 | 94 | 1009.1 |
| 20260510072503 | 23 | 190 | 0.0 | 3.2 | 0.00 | 0.00 | 0.00 | 94 | 1009.1 |
| 20260510072402 | 23 | 137 | 0.0 | 3.2 | 0.00 | 0.00 | 0.00 | 94 | 1009.1 |
| 20260510072305 | 23 | 137 | 0.0 | 4.8 | 0.00 | 0.00 | 0.00 | 94 | 1009.1 |
| 20260510072202 | 23 | 137 | 0.0 | 4.8 | 0.00 | 0.00 | 0.00 | 94 | 1009.1 |
| 20260510072103 | 23 | 137 | 0.0 | 4.8 | 0.00 | 0.00 | 0.00 | 94 | 1009.1 |
| 20260510072003 | 23 | 137 | 0.0 | 4.8 | 0.00 | 0.00 | 0.00 | 94 | 1009.1 |
| 20260510071903 | 23 | 137 | 0.0 | 4.8 | 0.00 | 0.00 | 0.00 | 94 | 1009.0 |
| 20260510071802 | 23 | 140 | 0.0 | 4.8 | 0.00 | 0.00 | 0.00 | 94 | 1009.0 |
| 20260510071702 | 23 | 134 | 1.6 | 4.8 | 0.00 | 0.00 | 0.00 | 94 | 1009.0 |
| 20260510071604 | 23 | 134 | 3.2 | 6.4 | 0.00 | 0.00 | 0.00 | 94 | 1009.0 |
| 20260510071502 | 23 | 134 | 3.2 | 6.4 | 0.00 | 0.00 | 0.00 | 94 | 1009.0 |
| 20260510071402 | 23 | 120 | 3.2 | 6.4 | 0.00 | 0.00 | 0.00 | 94 | 1009.0 |
| 20260510071303 | 23 | 144 | 1.6 | 6.4 | 0.00 | 0.00 | 0.00 | 94 | 1009.1 |
| 20260510071202 | 23 | 147 | 1.6 | 6.4 | 0.00 | 0.00 | 0.00 | 94 | 1009.0 |
| 20260510071103 | 23 | 127 | 0.0 | 6.4 | 0.00 | 0.00 | 0.00 | 94 | 1009.1 |
| 20260510071002 | 23 | 127 | 1.6 | 6.4 | 0.00 | 0.00 | 0.00 | 94 | 1009.1 |
| 20260510070903 | 23 | 127 | 1.6 | 6.4 | 0.00 | 0.00 | 0.00 | 94 | 1009.2 |
| 20260510070802 | 23 | 124 | 3.2 | 6.4 | 0.00 | 0.00 | 0.00 | 94 | 1009.2 |
| 20260510070702 | 23 | 124 | 1.6 | 6.4 | 0.00 | 0.00 | 0.00 | 94 | 1009.2 |
| 20260510070603 | 23 | 118 | 1.6 | 4.8 | 0.00 | 0.00 | 0.00 | 94 | 1009.2 |
| 20260510070503 | 23 | 134 | 1.6 | 4.8 | 0.00 | 0.00 | 0.00 | 94 | 1009.2 |
| 20260510070402 | 23 | 134 | 1.6 | 4.8 | 0.00 | 0.00 | 0.00 | 94 | 1009.2 |
| 20260510070304 | 23 | 134 | 3.2 | 4.8 | 0.00 | 0.00 | 0.00 | 94 | 1009.2 |
| 20260510070202 | 23 | 135 | 3.2 | 4.8 | 0.00 | 0.00 | 0.00 | 94 | 1009.2 |
| 20260510070104 | 23 | 138 | 1.6 | 6.4 | 0.00 | 0.00 | 0.00 | 93 | 1009.2 |
| 20260510070003 | 23 | 141 | 1.6 | 6.4 | 0.00 | 0.00 | 0.00 | 93 | 1009.2 |
| 20260510065903 | 23 | 142 | 3.2 | 6.4 | 0.00 | 0.00 | 0.00 | 93 | 1009.2 |
| 20260510065803 | 23 | 172 | 3.2 | 6.4 | 0.00 | 0.00 | 0.00 | 93 | 1009.2 |
| 20260510065702 | 23 | 137 | 3.2 | 6.4 | 0.00 | 0.00 | 0.00 | 93 | 1009.2 |
| 20260510065603 | 23 | 137 | 3.2 | 8.0 | 0.00 | 0.00 | 0.00 | 93 | 1009.2 |
| 20260510065504 | 23 | 137 | 3.2 | 8.0 | 0.00 | 0.00 | 0.00 | 93 | 1009.2 |
| 20260510065403 | 23 | 137 | 3.2 | 8.0 | 0.00 | 0.00 | 0.00 | 93 | 1009.1 |
| 20260510065306 | 23 | 137 | 3.2 | 8.0 | 0.00 | 0.00 | 0.00 | 93 | 1009.2 |
| 20260510065202 | 23 | 157 | 3.2 | 8.0 | 0.00 | 0.00 | 0.00 | 93 | 1009.1 |
| 20260510065102 | 23 | 158 | 3.2 | 8.0 | 0.00 | 0.00 | 0.00 | 93 | 1009.1 |
| 20260510065003 | 23 | 118 | 3.2 | 8.0 | 0.00 | 0.00 | 0.00 | 93 | 1009.2 |
| 20260510064903 | 23 | 169 | 3.2 | 8.0 | 0.00 | 0.00 | 0.00 | 93 | 1009.1 |
| 20260510064803 | 23 | 154 | 3.2 | 8.0 | 0.00 | 0.00 | 0.00 | 93 | 1009.1 |
| 20260510064704 | 23 | 159 | 3.2 | 8.0 | 0.00 | 0.00 | 0.00 | 93 | 1009.1 |
| 20260510064603 | 23 | 173 | 3.2 | 8.0 | 0.00 | 0.00 | 0.00 | 93 | 1009.2 |
| 20260510064503 | 23 | 166 | 4.8 | 8.0 | 0.00 | 0.00 | 0.00 | 93 | 1009.2 |
| 20260510064403 | 23 | 193 | 4.8 | 8.0 | 0.00 | 0.00 | 0.00 | 93 | 1009.2 |
| 20260510064302 | 23 | 158 | 4.8 | 8.0 | 0.00 | 0.00 | 0.00 | 93 | 1009.2 |
| 20260510064202 | 23 | 179 | 3.2 | 8.0 | 0.00 | 0.00 | 0.00 | 93 | 1009.2 |
| 20260510064102 | 23 | 169 | 3.2 | 8.0 | 0.00 | 0.00 | 0.00 | 93 | 1009.2 |
| 20260510064004 | 23 | 197 | 1.6 | 8.0 | 0.00 | 0.00 | 0.00 | 93 | 1009.2 |
| 20260510063903 | 23 | 158 | 1.6 | 9.7 | 0.00 | 0.00 | 0.00 | 93 | 1009.2 |
| 20260510063803 | 23 | 157 | 3.2 | 9.7 | 0.00 | 0.00 | 0.00 | 93 | 1009.2 |
| 20260510063701 | 23 | 130 | 3.2 | 9.7 | 0.00 | 0.00 | 0.00 | 93 | 1009.3 |
| 20260510063601 | 23 | 131 | 1.6 | 9.7 | 0.00 | 0.00 | 0.00 | 93 | 1009.2 |
| 20260510063503 | 23 | 169 | 1.6 | 9.7 | 0.00 | 0.00 | 0.00 | 93 | 1009.2 |
| 20260510063402 | 23 | 148 | 3.2 | 9.7 | 0.00 | 0.00 | 0.00 | 93 | 1009.2 |
| 20260510063302 | 23 | 120 | 3.2 | 9.7 | 0.00 | 0.00 | 0.00 | 93 | 1009.2 |
| 20260510063202 | 23 | 107 | 3.2 | 9.7 | 0.00 | 0.00 | 0.00 | 93 | 1009.2 |
| 20260510063103 | 23 | 128 | 4.8 | 9.7 | 0.00 | 0.00 | 0.00 | 93 | 1009.2 |
| 20260510063002 | 23 | 183 | 3.2 | 9.7 | 0.00 | 0.00 | 0.00 | 93 | 1009.2 |
| 20260510062903 | 23 | 131 | 3.2 | 9.7 | 0.00 | 0.00 | 0.00 | 93 | 1009.2 |
| 20260510062802 | 23 | 120 | 3.2 | 9.7 | 0.00 | 0.00 | 0.00 | 93 | 1009.2 |
| 20260510062702 | 23 | 31 | 3.2 | 9.7 | 0.00 | 0.00 | 0.00 | 93 | 1009.1 |
| 20260510062602 | 23 | 30 | 4.8 | 9.7 | 0.00 | 0.00 | 0.00 | 93 | 1009.2 |
| 20260510062504 | 23 | 47 | 6.4 | 9.7 | 0.00 | 0.00 | 0.00 | 93 | 1009.2 |
| 20260510062402 | 23 | 32 | 6.4 | 8.0 | 0.00 | 0.00 | 0.00 | 93 | 1009.2 |
| 20260510062306 | 23 | 32 | 6.4 | 8.0 | 0.00 | 0.00 | 0.00 | 93 | 1009.2 |
| 20260510062204 | 23 | 38 | 6.4 | 8.0 | 0.00 | 0.00 | 0.00 | 93 | 1009.3 |
| 20260510062102 | 23 | 30 | 4.8 | 8.0 | 0.00 | 0.00 | 0.00 | 93 | 1009.2 |
| 20260510062002 | 23 | 35 | 3.2 | 9.7 | 0.00 | 0.00 | 0.00 | 93 | 1009.2 |
| 20260510061903 | 23 | 30 | 3.2 | 9.7 | 0.00 | 0.00 | 0.00 | 93 | 1009.2 |
| 20260510061804 | 23 | 37 | 3.2 | 9.7 | 0.00 | 0.00 | 0.00 | 93 | 1009.2 |
| 20260510061702 | 23 | 30 | 3.2 | 9.7 | 0.00 | 0.00 | 0.00 | 93 | 1009.2 |
| 20260510061602 | 23 | 62 | 3.2 | 9.7 | 0.00 | 0.00 | 0.00 | 93 | 1009.2 |
| 20260510061503 | 23 | 49 | 3.2 | 9.7 | 0.00 | 0.00 | 0.00 | 93 | 1009.2 |
| 20260510061402 | 23 | 35 | 3.2 | 9.7 | 0.00 | 0.00 | 0.00 | 93 | 1009.2 |
| 20260510061303 | 23 | 34 | 3.2 | 9.7 | 0.00 | 0.00 | 0.00 | 93 | 1009.2 |
| 20260510061203 | 23 | 41 | 4.8 | 9.7 | 0.00 | 0.00 | 0.00 | 93 | 1009.2 |
| 20260510061103 | 23 | 58 | 4.8 | 9.7 | 0.00 | 0.00 | 0.00 | 93 | 1009.2 |
| 20260510061002 | 23 | 39 | 4.8 | 9.7 | 0.00 | 0.00 | 0.00 | 93 | 1009.2 |
| 20260510060903 | 23 | 42 | 6.4 | 9.7 | 0.00 | 0.00 | 0.00 | 93 | 1009.3 |
| 20260510060802 | 23 | 45 | 4.8 | 9.7 | 0.00 | 0.00 | 0.00 | 93 | 1009.2 |
| 20260510060702 | 23 | 39 | 3.2 | 9.7 | 0.00 | 0.00 | 0.00 | 93 | 1009.2 |
| 20260510060602 | 23 | 45 | 3.2 | 9.7 | 0.00 | 0.00 | 0.00 | 93 | 1009.3 |
| 20260510060502 | 23 | 37 | 3.2 | 9.7 | 0.00 | 0.00 | 0.00 | 93 | 1009.2 |
| 20260510060403 | 23 | 38 | 4.8 | 9.7 | 0.00 | 0.00 | 0.00 | 93 | 1009.2 |
| 20260510060302 | 23 | 37 | 3.2 | 9.7 | 0.00 | 0.00 | 0.00 | 93 | 1009.2 |
| 20260510060202 | 23 | 0 | 3.2 | 8.0 | 0.00 | 0.00 | 0.00 | 93 | 1009.2 |
| 20260510060104 | 23 | 24 | 3.2 | 8.0 | 0.00 | 0.00 | 0.00 | 93 | 1009.3 |
| 20260510060003 | 23 | 41 | 3.2 | 8.0 | 0.00 | 0.00 | 0.00 | 93 | 1009.2 |
| 20260510055902 | 23 | 32 | 4.8 | 8.0 | 0.00 | 0.00 | 0.00 | 93 | 1009.3 |
| 20260510055804 | 23 | 31 | 3.2 | 8.0 | 0.00 | 0.00 | 0.00 | 93 | 1009.3 |
| 20260510055703 | 23 | 37 | 4.8 | 8.0 | 0.00 | 0.00 | 0.00 | 93 | 1009.3 |
| 20260510055602 | 23 | 38 | 3.2 | 8.0 | 0.00 | 0.00 | 0.00 | 93 | 1009.3 |
| 20260510055502 | 23 | 37 | 1.6 | 8.0 | 0.00 | 0.00 | 0.00 | 93 | 1009.3 |
| 20260510055403 | 23 | 35 | 3.2 | 8.0 | 0.00 | 0.00 | 0.00 | 93 | 1009.3 |
| 20260510055301 | 23 | 44 | 4.8 | 8.0 | 0.00 | 0.00 | 0.00 | 93 | 1009.3 |
| 20260510055202 | 23 | 37 | 4.8 | 8.0 | 0.00 | 0.00 | 0.00 | 93 | 1009.2 |
| 20260510055104 | 23 | 32 | 1.6 | 6.4 | 0.00 | 0.00 | 0.00 | 93 | 1009.3 |
| 20260510055002 | 23 | 27 | 3.2 | 6.4 | 0.00 | 0.00 | 0.00 | 93 | 1009.3 |
| 20260510054901 | 23 | 27 | 3.2 | 8.0 | 0.00 | 0.00 | 0.00 | 93 | 1009.3 |
| 20260510054801 | 23 | 30 | 3.2 | 8.0 | 0.00 | 0.00 | 0.00 | 93 | 1009.3 |
| 20260510054704 | 23 | 30 | 3.2 | 8.0 | 0.00 | 0.00 | 0.00 | 93 | 1009.3 |
| 20260510054602 | 23 | 35 | 3.2 | 8.0 | 0.00 | 0.00 | 0.00 | 93 | 1009.3 |
| 20260510054503 | 23 | 38 | 3.2 | 8.0 | 0.00 | 0.00 | 0.00 | 93 | 1009.3 |
| 20260510054402 | 23 | 44 | 3.2 | 8.0 | 0.00 | 0.00 | 0.00 | 93 | 1009.3 |
| 20260510054303 | 23 | 34 | 3.2 | 8.0 | 0.00 | 0.00 | 0.00 | 93 | 1009.3 |
| 20260510054203 | 23 | 31 | 3.2 | 8.0 | 0.00 | 0.00 | 0.00 | 93 | 1009.3 |
| 20260510054103 | 23 | 35 | 3.2 | 9.7 | 0.00 | 0.00 | 0.00 | 93 | 1009.3 |
| 20260510054003 | 23 | 38 | 3.2 | 9.7 | 0.00 | 0.00 | 0.00 | 93 | 1009.4 |
| 20260510053902 | 23 | 23 | 3.2 | 9.7 | 0.00 | 0.00 | 0.00 | 93 | 1009.4 |
| 20260510053802 | 23 | 41 | 3.2 | 9.7 | 0.00 | 0.00 | 0.00 | 93 | 1009.3 |
| 20260510053702 | 23 | 25 | 4.8 | 9.7 | 0.00 | 0.00 | 0.00 | 93 | 1009.4 |
| 20260510053602 | 23 | 37 | 4.8 | 9.7 | 0.00 | 0.00 | 0.00 | 93 | 1009.3 |
| 20260510053502 | 23 | 32 | 3.2 | 9.7 | 0.00 | 0.00 | 0.00 | 93 | 1009.4 |
| 20260510053403 | 23 | 27 | 3.2 | 9.7 | 0.00 | 0.00 | 0.00 | 93 | 1009.3 |
| 20260510053302 | 23 | 32 | 4.8 | 9.7 | 0.00 | 0.00 | 0.00 | 93 | 1009.3 |
| 20260510053202 | 23 | 27 | 4.8 | 9.7 | 0.00 | 0.00 | 0.00 | 93 | 1009.3 |
| 20260510053102 | 23 | 37 | 4.8 | 9.7 | 0.00 | 0.00 | 0.00 | 93 | 1009.3 |
| 20260510053003 | 23 | 28 | 4.8 | 9.7 | 0.00 | 0.00 | 0.00 | 93 | 1009.4 |
| 20260510052902 | 23 | 31 | 4.8 | 9.7 | 0.00 | 0.00 | 0.00 | 93 | 1009.4 |
| 20260510052803 | 23 | 28 | 4.8 | 9.7 | 0.00 | 0.00 | 0.00 | 93 | 1009.4 |
| 20260510052702 | 23 | 25 | 4.8 | 9.7 | 0.00 | 0.00 | 0.00 | 92 | 1009.4 |
| 20260510052602 | 23 | 21 | 6.4 | 9.7 | 0.00 | 0.00 | 0.00 | 92 | 1009.3 |
| 20260510052504 | 23 | 34 | 6.4 | 9.7 | 0.00 | 0.00 | 0.00 | 92 | 1009.4 |
| 20260510052403 | 23 | 25 | 4.8 | 9.7 | 0.00 | 0.00 | 0.00 | 92 | 1009.3 |
| 20260510052306 | 23 | 35 | 6.4 | 8.0 | 0.00 | 0.00 | 0.00 | 92 | 1009.4 |
| 20260510052202 | 23 | 28 | 4.8 | 8.0 | 0.00 | 0.00 | 0.00 | 92 | 1009.4 |
| 20260510052103 | 23 | 30 | 3.2 | 8.0 | 0.00 | 0.00 | 0.00 | 92 | 1009.4 |
| 20260510052003 | 23 | 25 | 3.2 | 8.0 | 0.00 | 0.00 | 0.00 | 92 | 1009.5 |
| 20260510051901 | 23 | 25 | 3.2 | 8.0 | 0.00 | 0.00 | 0.00 | 92 | 1009.4 |
| 20260510051801 | 23 | 21 | 3.2 | 8.0 | 0.00 | 0.00 | 0.00 | 92 | 1009.4 |
| 20260510051658 | 23 | 27 | 4.8 | 8.0 | 0.00 | 0.00 | 0.00 | 92 | 1009.4 |
| 20260510051558 | 23 | 35 | 3.2 | 8.0 | 0.00 | 0.00 | 0.00 | 92 | 1009.3 |
| 20260510051455 | 23 | 31 | 1.6 | 9.7 | 0.00 | 0.00 | 0.00 | 92 | 1009.3 |
| 20260510051354 | 23 | 27 | 1.6 | 9.7 | 0.00 | 0.00 | 0.00 | 92 | 1009.3 |
| 20260510051253 | 23 | 28 | 3.2 | 9.7 | 0.00 | 0.00 | 0.00 | 92 | 1009.4 |
| 20260510051152 | 23 | 30 | 3.2 | 9.7 | 0.00 | 0.00 | 0.00 | 92 | 1009.4 |
| 20260510051048 | 23 | 39 | 3.2 | 9.7 | 0.00 | 0.00 | 0.00 | 92 | 1009.5 |
| 20260510050947 | 23 | 27 | 3.2 | 9.7 | 0.00 | 0.00 | 0.00 | 92 | 1009.5 |
| 20260510050846 | 23 | 24 | 3.2 | 11.3 | 0.00 | 0.00 | 0.00 | 91 | 1009.5 |
| 20260510050746 | 23 | 34 | 4.8 | 11.3 | 0.00 | 0.00 | 0.00 | 91 | 1009.5 |
| 20260510050645 | 23 | 35 | 4.8 | 11.3 | 0.00 | 0.00 | 0.00 | 91 | 1009.5 |
| 20260510050543 | 23 | 27 | 4.8 | 11.3 | 0.00 | 0.00 | 0.00 | 91 | 1009.5 |
| 20260510050440 | 23 | 32 | 4.8 | 11.3 | 0.00 | 0.00 | 0.00 | 91 | 1009.6 |
| 20260510050338 | 23 | 34 | 4.8 | 11.3 | 0.00 | 0.00 | 0.00 | 91 | 1009.5 |
| 20260510050238 | 23 | 25 | 4.8 | 11.3 | 0.00 | 0.00 | 0.00 | 91 | 1009.5 |
| 20260510050135 | 23 | 28 | 6.4 | 16.1 | 0.00 | 0.00 | 0.00 | 91 | 1009.6 |
| 20260510050035 | 23 | 31 | 8.0 | 16.1 | 0.00 | 0.00 | 0.00 | 91 | 1009.5 |
| 20260510045933 | 23 | 25 | 6.4 | 16.1 | 0.00 | 0.00 | 0.00 | 91 | 1009.5 |
| 20260510045832 | 23 | 28 | 4.8 | 16.1 | 0.00 | 0.00 | 0.00 | 91 | 1009.6 |
| 20260510045731 | 23 | 25 | 6.4 | 16.1 | 0.00 | 0.00 | 0.00 | 91 | 1009.6 |
| 20260510045630 | 23 | 28 | 8.0 | 16.1 | 0.00 | 0.00 | 0.00 | 91 | 1009.6 |
| 20260510045531 | 23 | 27 | 8.0 | 16.1 | 0.00 | 0.00 | 0.00 | 91 | 1009.5 |
| 20260510045431 | 23 | 27 | 9.7 | 16.1 | 0.00 | 0.00 | 0.00 | 91 | 1009.6 |
| 20260510045331 | 23 | 27 | 9.7 | 16.1 | 0.00 | 0.00 | 0.00 | 91 | 1009.5 |
| 20260510045233 | 23 | 28 | 9.7 | 16.1 | 0.00 | 0.00 | 0.00 | 91 | 1009.6 |
| 20260510045131 | 23 | 25 | 8.0 | 17.7 | 0.00 | 0.00 | 0.00 | 91 | 1009.6 |
| 20260510045031 | 23 | 31 | 6.4 | 17.7 | 0.00 | 0.00 | 0.00 | 91 | 1009.6 |
| 20260510044931 | 23 | 27 | 6.4 | 17.7 | 0.00 | 0.00 | 0.00 | 91 | 1009.6 |
| 20260510044831 | 23 | 28 | 6.4 | 17.7 | 0.00 | 0.00 | 0.00 | 90 | 1009.6 |
| 20260510044731 | 23 | 28 | 6.4 | 17.7 | 0.00 | 0.00 | 0.00 | 90 | 1009.5 |
| 20260510044632 | 23 | 28 | 6.4 | 17.7 | 0.00 | 0.00 | 0.00 | 90 | 1009.6 |
| 20260510044532 | 23 | 30 | 4.8 | 17.7 | 0.00 | 0.00 | 0.00 | 90 | 1009.5 |
| 20260510044432 | 23 | 27 | 6.4 | 19.3 | 0.00 | 0.00 | 0.00 | 90 | 1009.6 |
| 20260510044331 | 23 | 37 | 9.7 | 20.9 | 0.00 | 0.00 | 0.00 | 90 | 1009.6 |
| 20260510044229 | 23 | 25 | 8.0 | 20.9 | 0.00 | 0.00 | 0.00 | 90 | 1009.6 |
| 20260510044129 | 23 | 21 | 8.0 | 20.9 | 0.00 | 0.00 | 0.00 | 90 | 1009.6 |
| 20260510044027 | 23 | 38 | 9.7 | 20.9 | 0.00 | 0.00 | 0.00 | 90 | 1009.7 |
| 20260510043926 | 23 | 30 | 11.3 | 20.9 | 0.00 | 0.00 | 0.00 | 90 | 1009.7 |
| 20260510043824 | 23 | 21 | 9.7 | 20.9 | 0.00 | 0.00 | 0.00 | 90 | 1009.7 |
| 20260510043723 | 23 | 30 | 9.7 | 20.9 | 0.00 | 0.00 | 0.00 | 90 | 1009.7 |
| 20260510043620 | 23 | 28 | 12.9 | 20.9 | 0.00 | 0.00 | 0.00 | 89 | 1009.7 |
| 20260510043520 | 23 | 28 | 12.9 | 20.9 | 0.00 | 0.00 | 0.00 | 89 | 1009.7 |
| 20260510043418 | 23 | 31 | 11.3 | 20.9 | 0.00 | 0.00 | 0.00 | 89 | 1009.8 |
| 20260510043317 | 23 | 27 | 9.7 | 20.9 | 0.00 | 0.00 | 0.00 | 89 | 1009.8 |
| 20260510043214 | 23 | 30 | 11.3 | 20.9 | 0.00 | 0.00 | 0.00 | 89 | 1009.8 |
| 20260510043112 | 23 | 27 | 14.5 | 20.9 | 0.00 | 0.00 | 0.00 | 89 | 1009.8 |
| 20260510043012 | 23 | 34 | 14.5 | 20.9 | 0.00 | 0.00 | 0.00 | 89 | 1009.8 |
| 20260510042910 | 23 | 31 | 12.9 | 17.7 | 0.00 | 0.00 | 0.00 | 89 | 1009.8 |
| 20260510042810 | 23 | 28 | 14.5 | 19.3 | 0.00 | 0.00 | 0.00 | 89 | 1009.8 |
| 20260510042708 | 23 | 25 | 11.3 | 20.9 | 0.00 | 0.00 | 0.00 | 89 | 1009.8 |
| 20260510042604 | 23 | 27 | 8.0 | 20.9 | 0.00 | 0.00 | 0.00 | 89 | 1009.8 |
| 20260510042504 | 23 | 17 | 8.0 | 20.9 | 0.00 | 0.00 | 0.00 | 89 | 1009.8 |
| 20260510042402 | 23 | 31 | 9.7 | 20.9 | 0.00 | 0.00 | 0.00 | 88 | 1009.7 |
| 20260510042305 | 23 | 27 | 9.7 | 20.9 | 0.00 | 0.00 | 0.00 | 88 | 1009.8 |
| 20260510042204 | 23 | 21 | 9.7 | 20.9 | 0.00 | 0.00 | 0.00 | 88 | 1009.8 |
| 20260510042103 | 23 | 30 | 9.7 | 20.9 | 0.00 | 0.00 | 0.00 | 88 | 1009.8 |
| 20260510042005 | 23 | 30 | 12.9 | 20.9 | 0.00 | 0.00 | 0.00 | 88 | 1009.8 |
| 20260510041903 | 23 | 30 | 16.1 | 20.9 | 0.00 | 0.00 | 0.00 | 88 | 1009.8 |
| 20260510041802 | 23 | 30 | 12.9 | 20.9 | 0.00 | 0.00 | 0.00 | 88 | 1009.8 |
| 20260510041701 | 23 | 30 | 9.7 | 19.3 | 0.00 | 0.00 | 0.00 | 88 | 1009.8 |
| 20260510041601 | 23 | 34 | 11.3 | 19.3 | 0.00 | 0.00 | 0.00 | 88 | 1009.8 |
| 20260510041504 | 23 | 30 | 14.5 | 19.3 | 0.00 | 0.00 | 0.00 | 87 | 1009.8 |
| 20260510041402 | 23 | 31 | 14.5 | 19.3 | 0.00 | 0.00 | 0.00 | 87 | 1009.9 |
| 20260510041302 | 23 | 32 | 14.5 | 19.3 | 0.00 | 0.00 | 0.00 | 87 | 1009.8 |
| 20260510041203 | 23 | 30 | 12.9 | 17.7 | 0.00 | 0.00 | 0.00 | 87 | 1009.8 |
| 20260510041102 | 23 | 35 | 11.3 | 17.7 | 0.00 | 0.00 | 0.00 | 87 | 1009.8 |
| 20260510041004 | 23 | 38 | 8.0 | 17.7 | 0.00 | 0.00 | 0.00 | 87 | 1009.9 |
| 20260510040902 | 23 | 31 | 8.0 | 17.7 | 0.00 | 0.00 | 0.00 | 87 | 1009.9 |
| 20260510040802 | 23 | 21 | 9.7 | 17.7 | 0.00 | 0.00 | 0.00 | 87 | 1010.0 |
| 20260510040705 | 23 | 25 | 11.3 | 17.7 | 0.00 | 0.00 | 0.00 | 87 | 1010.0 |
| 20260510040603 | 23 | 30 | 9.7 | 19.3 | 0.00 | 0.00 | 0.00 | 87 | 1010.0 |
| 20260510040505 | 23 | 24 | 8.0 | 19.3 | 0.00 | 0.00 | 0.00 | 87 | 1010.0 |
| 20260510040403 | 23 | 23 | 11.3 | 19.3 | 0.00 | 0.00 | 0.00 | 87 | 1010.0 |
| 20260510040303 | 23 | 27 | 9.7 | 19.3 | 0.00 | 0.00 | 0.00 | 87 | 1010.0 |
| 20260510040202 | 23 | 24 | 6.4 | 19.3 | 0.00 | 0.00 | 0.00 | 87 | 1009.9 |
| 20260510040004 | 23 | 31 | 9.7 | 19.3 | 0.00 | 0.00 | 0.00 | 87 | 1009.9 |
| 20260510035902 | 23 | 21 | 11.3 | 19.3 | 0.00 | 0.00 | 0.00 | 87 | 1009.9 |
| 20260510035804 | 23 | 21 | 14.5 | 19.3 | 0.00 | 0.00 | 0.00 | 87 | 1009.9 |
| 20260510035702 | 23 | 30 | 12.9 | 19.3 | 0.00 | 0.00 | 0.00 | 86 | 1009.9 |
| 20260510035601 | 23 | 24 | 9.7 | 17.7 | 0.00 | 0.00 | 0.00 | 86 | 1010.0 |
| 20260510035501 | 23 | 23 | 9.7 | 17.7 | 0.00 | 0.00 | 0.00 | 86 | 1009.9 |
| 20260510035358 | 23 | 30 | 9.7 | 17.7 | 0.00 | 0.00 | 0.00 | 86 | 1010.0 |
| 20260510035258 | 23 | 27 | 11.3 | 17.7 | 0.00 | 0.00 | 0.00 | 86 | 1010.0 |
| 20260510035155 | 23 | 32 | 11.3 | 17.7 | 0.00 | 0.00 | 0.00 | 86 | 1010.0 |
| 20260510035055 | 23 | 25 | 9.7 | 16.1 | 0.00 | 0.00 | 0.00 | 86 | 1010.0 |
| 20260510034953 | 23 | 21 | 9.7 | 16.1 | 0.00 | 0.00 | 0.00 | 86 | 1010.0 |
| 20260510034853 | 23 | 31 | 8.0 | 16.1 | 0.00 | 0.00 | 0.00 | 86 | 1010.0 |
| 20260510034749 | 23 | 21 | 8.0 | 16.1 | 0.00 | 0.00 | 0.00 | 86 | 1010.0 |
| 20260510034647 | 23 | 20 | 9.7 | 16.1 | 0.00 | 0.00 | 0.00 | 86 | 1010.0 |
| 20260510034547 | 23 | 34 | 9.7 | 16.1 | 0.00 | 0.00 | 0.00 | 85 | 1010.0 |
| 20260510034445 | 23 | 20 | 9.7 | 16.1 | 0.00 | 0.00 | 0.00 | 85 | 1010.0 |
| 20260510034343 | 23 | 30 | 9.7 | 16.1 | 0.00 | 0.00 | 0.00 | 85 | 1010.0 |
| 20260510034242 | 23 | 27 | 6.4 | 16.1 | 0.00 | 0.00 | 0.00 | 85 | 1010.0 |
| 20260510034141 | 23 | 23 | 4.8 | 16.1 | 0.00 | 0.00 | 0.00 | 85 | 1009.9 |
| 20260510034037 | 23 | 30 | 4.8 | 16.1 | 0.00 | 0.00 | 0.00 | 85 | 1009.8 |
| 20260510033936 | 23 | 27 | 6.4 | 17.7 | 0.00 | 0.00 | 0.00 | 85 | 1009.8 |
| 20260510033837 | 23 | 31 | 8.0 | 19.3 | 0.00 | 0.00 | 0.00 | 85 | 1009.7 |
| 20260510033735 | 23 | 32 | 9.7 | 19.3 | 0.00 | 0.00 | 0.00 | 84 | 1009.6 |
| 20260510033634 | 23 | 34 | 11.3 | 19.3 | 0.00 | 0.00 | 0.00 | 84 | 1009.6 |
| 20260510033536 | 23 | 32 | 12.9 | 19.3 | 0.00 | 0.00 | 0.00 | 84 | 1009.6 |
| 20260510033434 | 23 | 34 | 11.3 | 19.3 | 0.00 | 0.00 | 0.00 | 84 | 1009.7 |
| 20260510033334 | 23 | 31 | 9.7 | 19.3 | 0.00 | 0.00 | 0.00 | 84 | 1009.6 |
| 20260510033235 | 23 | 28 | 11.3 | 19.3 | 0.00 | 0.00 | 0.00 | 84 | 1009.6 |
| 20260510033135 | 23 | 38 | 12.9 | 19.3 | 0.00 | 0.00 | 0.00 | 84 | 1009.6 |
| 20260510033034 | 23 | 31 | 11.3 | 19.3 | 0.00 | 0.00 | 0.00 | 84 | 1009.6 |
| 20260510032934 | 23 | 34 | 12.9 | 19.3 | 0.00 | 0.00 | 0.00 | 83 | 1009.6 |
| 20260510032836 | 23 | 28 | 14.5 | 17.7 | 0.00 | 0.00 | 0.00 | 83 | 1009.7 |
| 20260510032734 | 23 | 37 | 12.9 | 17.7 | 0.00 | 0.00 | 0.00 | 83 | 1009.8 |
| 20260510032634 | 23 | 25 | 11.3 | 17.7 | 0.00 | 0.00 | 0.00 | 83 | 1009.8 |
| 20260510032536 | 23 | 27 | 9.7 | 17.7 | 0.00 | 0.00 | 0.00 | 83 | 1009.8 |
| 20260510032434 | 23 | 34 | 12.9 | 19.3 | 0.00 | 0.00 | 0.00 | 83 | 1009.8 |
| 20260510032334 | 23 | 27 | 11.3 | 19.3 | 0.00 | 0.00 | 0.00 | 83 | 1009.8 |
| 20260510032235 | 23 | 28 | 9.7 | 19.3 | 0.00 | 0.00 | 0.00 | 82 | 1009.8 |
| 20260510032134 | 23 | 24 | 9.7 | 19.3 | 0.00 | 0.00 | 0.00 | 82 | 1009.9 |
| 20260510032035 | 23 | 27 | 9.7 | 19.3 | 0.00 | 0.00 | 0.00 | 82 | 1009.9 |
| 20260510031934 | 23 | 31 | 9.7 | 20.9 | 0.00 | 0.00 | 0.00 | 82 | 1010.0 |
| 20260510031835 | 23 | 27 | 9.7 | 20.9 | 0.00 | 0.00 | 0.00 | 82 | 1010.0 |
| 20260510031734 | 23 | 27 | 11.3 | 20.9 | 0.00 | 0.00 | 0.00 | 82 | 1010.0 |
| 20260510031634 | 23 | 30 | 12.9 | 22.5 | 0.00 | 0.00 | 0.00 | 82 | 1010.0 |
| 20260510031534 | 23 | 31 | 9.7 | 22.5 | 0.00 | 0.00 | 0.00 | 82 | 1010.1 |
| 20260510031434 | 23 | 30 | 9.7 | 22.5 | 0.00 | 0.00 | 0.00 | 82 | 1010.2 |
| 20260510031335 | 23 | 30 | 11.3 | 22.5 | 0.00 | 0.00 | 0.00 | 82 | 1010.1 |
| 20260510031234 | 23 | 28 | 11.3 | 22.5 | 0.00 | 0.00 | 0.00 | 82 | 1010.2 |
| 20260510031136 | 23 | 25 | 14.5 | 22.5 | 0.00 | 0.00 | 0.00 | 81 | 1010.2 |
| 20260510031034 | 23 | 30 | 14.5 | 22.5 | 0.00 | 0.00 | 0.00 | 81 | 1010.2 |
| 20260510030935 | 23 | 28 | 12.9 | 22.5 | 0.00 | 0.00 | 0.00 | 81 | 1010.3 |
| 20260510030835 | 23 | 21 | 14.5 | 27.4 | 0.00 | 0.00 | 0.00 | 81 | 1010.3 |
| 20260510030735 | 24 | 27 | 12.9 | 29.0 | 0.00 | 0.00 | 0.00 | 81 | 1010.4 |
| 20260510030634 | 24 | 23 | 12.9 | 29.0 | 0.00 | 0.00 | 0.00 | 81 | 1010.3 |
| 20260510030534 | 24 | 25 | 12.9 | 29.0 | 0.00 | 0.00 | 0.00 | 80 | 1010.2 |
| 20260510030435 | 24 | 23 | 12.9 | 29.0 | 0.00 | 0.00 | 0.00 | 80 | 1010.2 |
| 20260510030333 | 24 | 30 | 11.3 | 29.0 | 0.00 | 0.00 | 0.00 | 80 | 1010.2 |
| 20260510030233 | 23 | 20 | 9.7 | 29.0 | 0.00 | 0.00 | 0.00 | 80 | 1010.1 |
| 20260510030135 | 23 | 30 | 12.9 | 29.0 | 0.00 | 0.00 | 0.00 | 80 | 1010.0 |
| 20260510030033 | 24 | 27 | 16.1 | 29.0 | 0.00 | 0.00 | 0.00 | 80 | 1010.0 |
| 20260510025934 | 23 | 35 | 17.7 | 29.0 | 0.00 | 0.00 | 0.00 | 79 | 1010.0 |
| 20260510025833 | 23 | 27 | 17.7 | 29.0 | 0.00 | 0.00 | 0.00 | 79 | 1009.9 |
| 20260510025735 | 23 | 28 | 17.7 | 30.6 | 0.00 | 0.00 | 0.00 | 79 | 1009.9 |
| 20260510025633 | 23 | 39 | 14.5 | 30.6 | 0.00 | 0.00 | 0.00 | 79 | 1009.9 |
| 20260510025533 | 23 | 28 | 14.5 | 30.6 | 0.00 | 0.00 | 0.00 | 79 | 1009.6 |
| 20260510025435 | 23 | 32 | 17.7 | 30.6 | 0.00 | 0.00 | 0.00 | 79 | 1009.6 |
| 20260510025333 | 24 | 93 | 16.1 | 30.6 | 0.00 | 0.00 | 0.00 | 79 | 1009.7 |
| 20260510025233 | 24 | 92 | 16.1 | 30.6 | 0.00 | 0.00 | 0.00 | 79 | 1009.7 |
| 20260510025133 | 24 | 96 | 19.3 | 30.6 | 0.00 | 0.00 | 0.00 | 79 | 1009.7 |
| 20260510025034 | 24 | 100 | 20.9 | 32.2 | 0.00 | 0.00 | 0.00 | 79 | 1009.7 |
| 20260510024933 | 24 | 73 | 20.9 | 32.2 | 0.00 | 0.00 | 0.00 | 79 | 1009.7 |
| 20260510024834 | 24 | 114 | 19.3 | 32.2 | 0.00 | 0.00 | 0.00 | 79 | 1009.7 |
| 20260510024734 | 24 | 89 | 17.7 | 33.8 | 0.00 | 0.00 | 0.00 | 79 | 1009.8 |
| 20260510024633 | 24 | 69 | 19.3 | 33.8 | 0.00 | 0.00 | 0.00 | 79 | 1009.8 |
| 20260510024533 | 24 | 78 | 19.3 | 33.8 | 0.00 | 0.00 | 0.00 | 79 | 1009.8 |
| 20260510024433 | 24 | 106 | 19.3 | 33.8 | 0.00 | 0.00 | 0.00 | 79 | 1009.8 |
| 20260510024333 | 24 | 75 | 20.9 | 33.8 | 0.00 | 0.00 | 0.00 | 80 | 1009.7 |
| 20260510024233 | 24 | 92 | 20.9 | 33.8 | 0.00 | 0.00 | 0.00 | 80 | 1009.8 |
| 20260510024133 | 24 | 99 | 20.9 | 41.8 | 0.00 | 0.00 | 0.00 | 80 | 1009.7 |
| 20260510024034 | 24 | 87 | 17.7 | 41.8 | 0.00 | 0.00 | 0.00 | 80 | 1009.7 |
| 20260510023933 | 24 | 92 | 20.9 | 41.8 | 0.00 | 0.00 | 0.00 | 80 | 1009.7 |
| 20260510023833 | 24 | 113 | 22.5 | 41.8 | 0.00 | 0.00 | 0.00 | 81 | 1009.6 |
| 20260510023733 | 25 | 102 | 20.9 | 41.8 | 0.00 | 0.00 | 0.00 | 81 | 1009.6 |
| 20260510023634 | 25 | 94 | 22.5 | 41.8 | 0.00 | 0.00 | 0.00 | 81 | 1009.5 |
| 20260510023533 | 25 | 85 | 22.5 | 41.8 | 0.00 | 0.00 | 0.00 | 82 | 1009.6 |
| 20260510023433 | 25 | 104 | 20.9 | 41.8 | 0.00 | 0.00 | 0.00 | 82 | 1009.6 |
| 20260510023334 | 25 | 89 | 22.5 | 41.8 | 0.00 | 0.00 | 0.00 | 82 | 1009.6 |
| 20260510023234 | 25 | 79 | 24.1 | 41.8 | 0.00 | 0.00 | 0.00 | 83 | 1009.7 |
| 20260510023133 | 25 | 85 | 24.1 | 41.8 | 0.00 | 0.00 | 0.00 | 84 | 1009.6 |
| 20260510023034 | 25 | 86 | 24.1 | 41.8 | 0.00 | 0.00 | 0.00 | 84 | 1009.6 |
| 20260510022934 | 25 | 93 | 24.1 | 41.8 | 0.00 | 0.00 | 0.00 | 85 | 1009.5 |
| 20260510022833 | 25 | 92 | 20.9 | 41.8 | 0.00 | 0.00 | 0.00 | 85 | 1009.5 |
| 20260510022733 | 26 | 123 | 22.5 | 41.8 | 0.00 | 0.00 | 0.00 | 85 | 1009.3 |
| 20260510022634 | 26 | 106 | 24.1 | 41.8 | 0.00 | 0.00 | 0.00 | 85 | 1009.3 |
| 20260510022533 | 26 | 103 | 19.3 | 45.1 | 0.00 | 0.00 | 0.00 | 86 | 1009.3 |
| 20260510022432 | 26 | 86 | 17.7 | 45.1 | 0.00 | 0.00 | 0.00 | 86 | 1009.2 |
| 20260510022334 | 26 | 80 | 17.7 | 45.1 | 0.00 | 0.00 | 0.00 | 86 | 1009.1 |
| 20260510022233 | 26 | 86 | 19.3 | 45.1 | 0.00 | 0.00 | 0.00 | 86 | 1009.1 |
| 20260510022133 | 26 | 92 | 20.9 | 45.1 | 0.00 | 0.00 | 0.00 | 86 | 1009.1 |
| 20260510022033 | 26 | 99 | 24.1 | 45.1 | 0.00 | 0.00 | 0.00 | 86 | 1009.1 |
| 20260510021932 | 26 | 104 | 25.7 | 45.1 | 0.00 | 0.00 | 0.00 | 86 | 1009.1 |
| 20260510021832 | 26 | 111 | 24.1 | 45.1 | 0.00 | 0.00 | 0.00 | 86 | 1009.0 |
| 20260510021732 | 26 | 127 | 27.4 | 45.1 | 0.00 | 0.00 | 0.00 | 85 | 1009.0 |
| 20260510021633 | 26 | 107 | 29.0 | 45.1 | 0.00 | 0.00 | 0.00 | 85 | 1009.0 |
| 20260510021532 | 26 | 110 | 20.9 | 37.0 | 0.00 | 0.00 | 0.00 | 85 | 1008.9 |
| 20260510021432 | 26 | 114 | 19.3 | 37.0 | 0.00 | 0.00 | 0.00 | 85 | 1008.9 |
| 20260510021333 | 26 | 90 | 17.7 | 37.0 | 0.00 | 0.00 | 0.00 | 85 | 1008.9 |
| 20260510021233 | 27 | 114 | 19.3 | 37.0 | 0.00 | 0.00 | 0.00 | 85 | 1008.9 |
| 20260510021132 | 27 | 130 | 20.9 | 37.0 | 0.00 | 0.00 | 0.00 | 85 | 1008.9 |
| 20260510021032 | 27 | 103 | 22.5 | 37.0 | 0.00 | 0.00 | 0.00 | 84 | 1008.8 |
| 20260510020931 | 27 | 120 | 22.5 | 37.0 | 0.00 | 0.00 | 0.00 | 84 | 1008.8 |
| 20260510020832 | 27 | 107 | 22.5 | 33.8 | 0.00 | 0.00 | 0.00 | 84 | 1008.7 |
| 20260510020731 | 27 | 114 | 24.1 | 33.8 | 0.00 | 0.00 | 0.00 | 84 | 1008.8 |
| 20260510020630 | 27 | 123 | 22.5 | 33.8 | 0.00 | 0.00 | 0.00 | 83 | 1008.7 |
| 20260510020528 | 27 | 87 | 17.7 | 27.4 | 0.00 | 0.00 | 0.00 | 83 | 1008.7 |
| 20260510020425 | 27 | 120 | 16.1 | 27.4 | 0.00 | 0.00 | 0.00 | 83 | 1008.6 |
| 20260510020325 | 27 | 110 | 17.7 | 27.4 | 0.00 | 0.00 | 0.00 | 82 | 1008.5 |
| 20260510020225 | 27 | 137 | 19.3 | 27.4 | 0.00 | 0.00 | 0.00 | 82 | 1008.5 |
| 20260510020124 | 27 | 116 | 16.1 | 27.4 | 0.00 | 0.00 | 0.00 | 81 | 1008.4 |
| 20260510020025 | 27 | 128 | 16.1 | 27.4 | 0.00 | 0.00 | 0.00 | 81 | 1008.4 |
| 20260510015919 | 27 | 154 | 16.1 | 27.4 | 0.00 | 0.00 | 0.00 | 81 | 1008.3 |
| 20260510015816 | 27 | 118 | 16.1 | 27.4 | 0.00 | 0.00 | 0.00 | 80 | 1008.3 |
| 20260510015716 | 27 | 121 | 19.3 | 27.4 | 0.00 | 0.00 | 0.00 | 80 | 1008.2 |
| 20260510015615 | 27 | 94 | 17.7 | 27.4 | 0.00 | 0.00 | 0.00 | 79 | 1008.3 |
| 20260510015513 | 27 | 102 | 14.5 | 25.7 | 0.00 | 0.00 | 0.00 | 79 | 1008.2 |
| 20260510015411 | 27 | 89 | 14.5 | 25.7 | 0.00 | 0.00 | 0.00 | 78 | 1008.1 |
| 20260510015310 | 27 | 111 | 17.7 | 25.7 | 0.00 | 0.00 | 0.00 | 78 | 1008.2 |
| 20260510015208 | 27 | 97 | 17.7 | 24.1 | 0.00 | 0.00 | 0.00 | 77 | 1008.1 |
| 20260510015107 | 27 | 100 | 16.1 | 22.5 | 0.00 | 0.00 | 0.00 | 75 | 1008.1 |
| 20260510015007 | 27 | 102 | 9.7 | 19.3 | 0.00 | 0.00 | 0.00 | 74 | 1008.1 |
| 20260510014904 | 27 | 152 | 6.4 | 11.3 | 0.00 | 0.00 | 0.00 | 71 | 1008.1 |
| 20260510014802 | 27 | 71 | 4.8 | 11.3 | 0.00 | 0.00 | 0.00 | 69 | 1008.0 |
| 20260510014701 | 27 | 296 | 1.6 | 4.8 | 0.00 | 0.00 | 0.00 | 69 | 1007.8 |
| 20260510014602 | 27 | 296 | 1.6 | 4.8 | 0.00 | 0.00 | 0.00 | 69 | 1007.8 |
| 20260510014502 | 27 | 296 | 1.6 | 4.8 | 0.00 | 0.00 | 0.00 | 70 | 1007.8 |
| 20260510014403 | 27 | 296 | 3.2 | 4.8 | 0.00 | 0.00 | 0.00 | 70 | 1007.7 |
| 20260510014302 | 27 | 296 | 3.2 | 4.8 | 0.00 | 0.00 | 0.00 | 70 | 1007.7 |
| 20260510014204 | 27 | 295 | 3.2 | 4.8 | 0.00 | 0.00 | 0.00 | 70 | 1007.6 |
| 20260510014104 | 26 | 279 | 3.2 | 4.8 | 0.00 | 0.00 | 0.00 | 70 | 1007.7 |
| 20260510014000 | 26 | 279 | 3.2 | 3.2 | 0.00 | 0.00 | 0.00 | 71 | 1007.6 |
| 20260510013900 | 27 | 144 | 1.6 | 3.2 | 0.00 | 0.00 | 0.00 | 70 | 1007.7 |
| 20260510013758 | 27 | 144 | 1.6 | 3.2 | 0.00 | 0.00 | 0.00 | 70 | 1007.6 |
| 20260510013656 | 27 | 144 | 1.6 | 3.2 | 0.00 | 0.00 | 0.00 | 69 | 1007.5 |
| 20260510013556 | 27 | 144 | 0.0 | 3.2 | 0.00 | 0.00 | 0.00 | 69 | 1007.5 |
| 20260510013454 | 27 | 144 | 0.0 | 3.2 | 0.00 | 0.00 | 0.00 | 67 | 1007.4 |
| 20260510013353 | 27 | 144 | 0.0 | 3.2 | 0.00 | 0.00 | 0.00 | 67 | 1007.4 |
| 20260510013251 | 27 | 144 | 0.0 | 3.2 | 0.00 | 0.00 | 0.00 | 67 | 1007.3 |
| 20260510013149 | 27 | 144 | 0.0 | 4.8 | 0.00 | 0.00 | 0.00 | 67 | 1007.3 |
| 20260510013048 | 27 | 144 | 1.6 | 4.8 | 0.00 | 0.00 | 0.00 | 67 | 1007.3 |
| 20260510012946 | 27 | 144 | 0.0 | 4.8 | 0.00 | 0.00 | 0.00 | 66 | 1007.3 |
| 20260510012843 | 27 | 144 | 1.6 | 4.8 | 0.00 | 0.00 | 0.00 | 66 | 1007.3 |
| 20260510012742 | 27 | 65 | 1.6 | 4.8 | 0.00 | 0.00 | 0.00 | 66 | 1007.3 |
| 20260510012642 | 27 | 66 | 1.6 | 6.4 | 0.00 | 0.00 | 0.00 | 66 | 1007.2 |
| 20260510012540 | 27 | 66 | 1.6 | 6.4 | 0.00 | 0.00 | 0.00 | 66 | 1007.2 |
| 20260510012438 | 27 | 66 | 3.2 | 6.4 | 0.00 | 0.00 | 0.00 | 66 | 1007.1 |
| 20260510012334 | 27 | 66 | 3.2 | 6.4 | 0.00 | 0.00 | 0.00 | 66 | 1007.2 |
| 20260510012232 | 27 | 66 | 3.2 | 6.4 | 0.00 | 0.00 | 0.00 | 66 | 1007.1 |
| 20260510012134 | 27 | 68 | 3.2 | 6.4 | 0.00 | 0.00 | 0.00 | 65 | 1007.0 |
| 20260510012033 | 27 | 69 | 3.2 | 6.4 | 0.00 | 0.00 | 0.00 | 65 | 1007.1 |
| 20260510011932 | 27 | 69 | 3.2 | 6.4 | 0.00 | 0.00 | 0.00 | 65 | 1007.1 |
| 20260510011832 | 27 | 71 | 3.2 | 6.4 | 0.00 | 0.00 | 0.00 | 65 | 1007.1 |
| 20260510011733 | 27 | 56 | 1.6 | 6.4 | 0.00 | 0.00 | 0.00 | 65 | 1007.0 |
| 20260510011632 | 27 | 51 | 1.6 | 6.4 | 0.00 | 0.00 | 0.00 | 65 | 1007.0 |
| 20260510011533 | 27 | 103 | 1.6 | 6.4 | 0.00 | 0.00 | 0.00 | 65 | 1007.1 |
| 20260510011431 | 27 | 104 | 3.2 | 6.4 | 0.00 | 0.00 | 0.00 | 64 | 1007.0 |
| 20260510011332 | 27 | 106 | 3.2 | 6.4 | 0.00 | 0.00 | 0.00 | 63 | 1007.0 |
| 20260510011232 | 27 | 104 | 4.8 | 6.4 | 0.00 | 0.00 | 0.00 | 63 | 1006.9 |
| 20260510011132 | 27 | 103 | 4.8 | 6.4 | 0.00 | 0.00 | 0.00 | 63 | 1006.8 |
| 20260510011032 | 27 | 111 | 4.8 | 6.4 | 0.00 | 0.00 | 0.00 | 63 | 1006.9 |
| 20260510010931 | 27 | 107 | 4.8 | 6.4 | 0.00 | 0.00 | 0.00 | 63 | 1006.8 |
| 20260510010831 | 27 | 103 | 4.8 | 6.4 | 0.00 | 0.00 | 0.00 | 63 | 1006.7 |
| 20260510010730 | 27 | 103 | 4.8 | 6.4 | 0.00 | 0.00 | 0.00 | 63 | 1006.8 |
| 20260510010632 | 27 | 102 | 3.2 | 6.4 | 0.00 | 0.00 | 0.00 | 63 | 1006.7 |
| 20260510010532 | 27 | 102 | 3.2 | 9.7 | 0.00 | 0.00 | 0.00 | 63 | 1006.8 |
| 20260510010432 | 27 | 103 | 1.6 | 9.7 | 0.00 | 0.00 | 0.00 | 63 | 1006.8 |
| 20260510010331 | 27 | 103 | 3.2 | 9.7 | 0.00 | 0.00 | 0.00 | 63 | 1006.8 |
| 20260510010232 | 27 | 102 | 1.6 | 9.7 | 0.00 | 0.00 | 0.00 | 62 | 1006.8 |
| 20260510010131 | 27 | 102 | 1.6 | 9.7 | 0.00 | 0.00 | 0.00 | 62 | 1006.8 |
| 20260510010031 | 27 | 102 | 3.2 | 9.7 | 0.00 | 0.00 | 0.00 | 62 | 1006.9 |
| 20260510005933 | 27 | 138 | 3.2 | 9.7 | 0.00 | 0.00 | 0.00 | 62 | 1006.9 |
| 20260510005832 | 27 | 149 | 4.8 | 9.7 | 0.00 | 0.00 | 0.00 | 62 | 1006.9 |
| 20260510005731 | 27 | 161 | 6.4 | 9.7 | 0.00 | 0.00 | 0.00 | 62 | 1006.8 |
| 20260510005632 | 27 | 100 | 4.8 | 9.7 | 0.00 | 0.00 | 0.00 | 61 | 1006.8 |
| 20260510005531 | 27 | 86 | 3.2 | 9.7 | 0.00 | 0.00 | 0.00 | 61 | 1006.7 |
| 20260510005431 | 27 | 96 | 4.8 | 16.1 | 0.00 | 0.00 | 0.00 | 61 | 1006.6 |
| 20260510005332 | 27 | 120 | 6.4 | 16.1 | 0.00 | 0.00 | 0.00 | 61 | 1006.6 |
| 20260510005232 | 27 | 93 | 6.4 | 16.1 | 0.00 | 0.00 | 0.00 | 61 | 1006.6 |
| 20260510005131 | 27 | 103 | 4.8 | 16.1 | 0.00 | 0.00 | 0.00 | 61 | 1006.5 |
| 20260510005030 | 27 | 97 | 4.8 | 16.1 | 0.00 | 0.00 | 0.00 | 61 | 1006.5 |
| 20260510004928 | 27 | 137 | 4.8 | 16.1 | 0.00 | 0.00 | 0.00 | 61 | 1006.6 |
| 20260510004828 | 27 | 210 | 4.8 | 19.3 | 0.00 | 0.00 | 0.00 | 61 | 1006.5 |
| 20260510004725 | 27 | 97 | 6.4 | 19.3 | 0.00 | 0.00 | 0.00 | 61 | 1006.6 |
| 20260510004624 | 27 | 250 | 8.0 | 19.3 | 0.00 | 0.00 | 0.00 | 61 | 1006.7 |
| 20260510004522 | 27 | 128 | 8.0 | 19.3 | 0.00 | 0.00 | 0.00 | 62 | 1006.6 |
| 20260510004422 | 27 | 120 | 6.4 | 19.3 | 0.00 | 0.00 | 0.00 | 62 | 1006.6 |
| 20260510004319 | 27 | 141 | 6.4 | 19.3 | 0.00 | 0.00 | 0.00 | 63 | 1006.6 |
| 20260510004218 | 27 | 203 | 9.7 | 19.3 | 0.00 | 0.00 | 0.00 | 63 | 1006.6 |
| 20260510004117 | 27 | 164 | 9.7 | 19.3 | 0.00 | 0.00 | 0.00 | 63 | 1006.5 |
| 20260510004016 | 27 | 212 | 11.3 | 25.7 | 0.00 | 0.00 | 0.00 | 63 | 1006.4 |
| 20260510003908 | 28 | 173 | 11.3 | 25.7 | 0.00 | 0.00 | 0.00 | 64 | 1006.4 |
| 20260510003807 | 28 | 214 | 9.7 | 25.7 | 0.00 | 0.00 | 0.00 | 63 | 1006.4 |
| 20260510003706 | 28 | 173 | 9.7 | 25.7 | 0.00 | 0.00 | 0.00 | 63 | 1006.4 |
| 20260510003602 | 28 | 154 | 9.7 | 25.7 | 0.00 | 0.00 | 0.00 | 63 | 1006.4 |
| 20260510003502 | 28 | 207 | 9.7 | 25.7 | 0.00 | 0.00 | 0.00 | 63 | 1006.4 |
| 20260510003403 | 28 | 185 | 6.4 | 25.7 | 0.00 | 0.00 | 0.00 | 62 | 1006.4 |
| 20260510003303 | 28 | 128 | 6.4 | 25.7 | 0.00 | 0.00 | 0.00 | 62 | 1006.4 |
| 20260510003203 | 28 | 173 | 11.3 | 25.7 | 0.00 | 0.00 | 0.00 | 61 | 1006.4 |
| 20260510003103 | 28 | 161 | 12.9 | 25.7 | 0.00 | 0.00 | 0.00 | 61 | 1006.4 |
| 20260510003005 | 29 | 221 | 11.3 | 25.7 | 0.00 | 0.00 | 0.00 | 59 | 1006.5 |
| 20260510002903 | 29 | 141 | 9.7 | 25.7 | 0.00 | 0.00 | 0.00 | 57 | 1006.5 |
| 20260510002803 | 29 | 8 | 9.7 | 25.7 | 0.00 | 0.00 | 0.00 | 57 | 1006.6 |
| 20260510002702 | 29 | 161 | 9.7 | 27.4 | 0.00 | 0.00 | 0.00 | 56 | 1006.5 |
| 20260510002602 | 29 | 221 | 9.7 | 27.4 | 0.00 | 0.00 | 0.00 | 56 | 1006.6 |
| 20260510002502 | 29 | 206 | 8.0 | 27.4 | 0.00 | 0.00 | 0.00 | 56 | 1006.5 |
| 20260510002402 | 29 | 185 | 9.7 | 27.4 | 0.00 | 0.00 | 0.00 | 57 | 1006.6 |
| 20260510002306 | 29 | 203 | 11.3 | 27.4 | 0.00 | 0.00 | 0.00 | 57 | 1006.6 |
| 20260510002203 | 30 | 210 | 11.3 | 27.4 | 0.00 | 0.00 | 0.00 | 58 | 1006.6 |
| 20260510002103 | 30 | 192 | 11.3 | 27.4 | 0.00 | 0.00 | 0.00 | 59 | 1006.6 |
| 20260510002004 | 30 | 196 | 9.7 | 27.4 | 0.00 | 0.00 | 0.00 | 60 | 1006.6 |
| 20260510001903 | 30 | 200 | 12.9 | 27.4 | 0.00 | 0.00 | 0.00 | 61 | 1006.5 |
| 20260510001802 | 30 | 203 | 14.5 | 27.4 | 0.00 | 0.00 | 0.00 | 61 | 1006.5 |
| 20260510001701 | 30 | 254 | 12.9 | 24.1 | 0.00 | 0.00 | 0.00 | 64 | 1006.4 |
| 20260510001600 | 30 | 149 | 11.3 | 24.1 | 0.00 | 0.00 | 0.00 | 67 | 1006.3 |
| 20260510001459 | 30 | 196 | 8.0 | 16.1 | 0.00 | 0.00 | 0.00 | 69 | 1006.3 |
| 20260510001356 | 30 | 199 | 6.4 | 16.1 | 0.00 | 0.00 | 0.00 | 70 | 1006.3 |
| 20260510001255 | 30 | 188 | 6.4 | 16.1 | 0.00 | 0.00 | 0.00 | 69 | 1006.3 |
| 20260510001152 | 30 | 175 | 8.0 | 16.1 | 0.00 | 0.00 | 0.00 | 69 | 1006.3 |
| 20260510001050 | 30 | 111 | 8.0 | 16.1 | 0.00 | 0.00 | 0.00 | 69 | 1006.2 |
| 20260510000949 | 30 | 106 | 8.0 | 16.1 | 0.00 | 0.00 | 0.00 | 69 | 1006.2 |
| 20260510000847 | 30 | 104 | 8.0 | 16.1 | 0.00 | 0.00 | 0.00 | 69 | 1006.1 |
| 20260510000746 | 30 | 97 | 6.4 | 11.3 | 0.00 | 0.00 | 0.00 | 69 | 1006.1 |
| 20260510000645 | 30 | 127 | 6.4 | 11.3 | 0.00 | 0.00 | 0.00 | 70 | 1006.1 |
| 20260510000543 | 30 | 90 | 6.4 | 11.3 | 0.00 | 0.00 | 0.00 | 70 | 1006.1 |
| 20260510000441 | 30 | 83 | 6.4 | 11.3 | 0.00 | 0.00 | 0.00 | 70 | 1006.1 |
| 20260510000341 | 30 | 87 | 6.4 | 11.3 | 0.00 | 0.00 | 0.00 | 70 | 1006.2 |
| 20260510000241 | 30 | 86 | 4.8 | 11.3 | 0.00 | 0.00 | 0.00 | 70 | 1006.2 |
| 20260510000133 | 30 | 92 | 6.4 | 11.3 | 0.00 | 0.00 | 0.00 | 70 | 1006.2 |
| 20260510000035 | 30 | 89 | 6.4 | 11.3 | 0.00 | 0.00 | 0.00 | 70 | 1006.2 |
| 20260509235931 | 30 | 107 | 6.4 | 11.3 | 0.00 | 0.00 | 0.00 | 70 | 1006.2 |
| 20260509235832 | 30 | 96 | 6.4 | 11.3 | 0.00 | 0.00 | 0.00 | 70 | 1006.2 |
| 20260509235731 | 30 | 102 | 4.8 | 9.7 | 0.00 | 0.00 | 0.00 | 70 | 1006.1 |
| 20260509235631 | 30 | 73 | 3.2 | 9.7 | 0.00 | 0.00 | 0.00 | 70 | 1006.1 |
| 20260509235532 | 30 | 71 | 4.8 | 9.7 | 0.00 | 0.00 | 0.00 | 70 | 1006.0 |
| 20260509235431 | 30 | 71 | 6.4 | 9.7 | 0.00 | 0.00 | 0.00 | 70 | 1006.0 |
| 20260509235331 | 30 | 63 | 6.4 | 9.7 | 0.00 | 0.00 | 0.00 | 70 | 1006.0 |
| 20260509235231 | 30 | 66 | 8.0 | 9.7 | 0.00 | 0.00 | 0.00 | 70 | 1006.0 |
| 20260509235131 | 30 | 80 | 6.4 | 11.3 | 0.00 | 0.00 | 0.00 | 70 | 1006.0 |
| 20260509235031 | 30 | 62 | 6.4 | 11.3 | 0.00 | 0.00 | 0.00 | 70 | 1006.1 |
| 20260509234932 | 30 | 49 | 6.4 | 11.3 | 0.00 | 0.00 | 0.00 | 70 | 1006.2 |
| 20260509234832 | 30 | 65 | 4.8 | 11.3 | 0.00 | 0.00 | 0.00 | 69 | 1006.2 |
| 20260509234731 | 30 | 79 | 4.8 | 11.3 | 0.00 | 0.00 | 0.00 | 69 | 1006.2 |
| 20260509234631 | 30 | 47 | 4.8 | 11.3 | 0.00 | 0.00 | 0.00 | 69 | 1006.1 |
| 20260509234531 | 30 | 44 | 4.8 | 11.3 | 0.00 | 0.00 | 0.00 | 69 | 1006.0 |
| 20260509234431 | 30 | 42 | 4.8 | 11.3 | 0.00 | 0.00 | 0.00 | 69 | 1006.0 |
| 20260509234331 | 30 | 87 | 6.4 | 11.3 | 0.00 | 0.00 | 0.00 | 68 | 1005.9 |
| 20260509234231 | 30 | 87 | 8.0 | 11.3 | 0.00 | 0.00 | 0.00 | 68 | 1005.9 |
| 20260509234132 | 30 | 92 | 8.0 | 11.3 | 0.00 | 0.00 | 0.00 | 68 | 1005.8 |
| 20260509234031 | 30 | 85 | 6.4 | 11.3 | 0.00 | 0.00 | 0.00 | 69 | 1005.8 |
| 20260509233932 | 30 | 66 | 6.4 | 11.3 | 0.00 | 0.00 | 0.00 | 69 | 1005.8 |
| 20260509233832 | 30 | 66 | 6.4 | 11.3 | 0.00 | 0.00 | 0.00 | 69 | 1005.8 |
| 20260509233731 | 30 | 75 | 6.4 | 11.3 | 0.00 | 0.00 | 0.00 | 69 | 1005.8 |
| 20260509233631 | 30 | 72 | 6.4 | 11.3 | 0.00 | 0.00 | 0.00 | 69 | 1005.8 |
| 20260509233531 | 30 | 56 | 4.8 | 9.7 | 0.00 | 0.00 | 0.00 | 69 | 1005.9 |
| 20260509233432 | 30 | 39 | 4.8 | 9.7 | 0.00 | 0.00 | 0.00 | 69 | 1005.8 |
| 20260509233332 | 30 | 61 | 6.4 | 9.7 | 0.00 | 0.00 | 0.00 | 69 | 1006.0 |
| 20260509233231 | 30 | 69 | 6.4 | 9.7 | 0.00 | 0.00 | 0.00 | 69 | 1006.0 |
| 20260509233131 | 30 | 55 | 4.8 | 9.7 | 0.00 | 0.00 | 0.00 | 69 | 1006.0 |
| 20260509233031 | 30 | 54 | 4.8 | 9.7 | 0.00 | 0.00 | 0.00 | 70 | 1006.0 |
| 20260509232931 | 30 | 52 | 4.8 | 9.7 | 0.00 | 0.00 | 0.00 | 69 | 1006.0 |
| 20260509232831 | 30 | 52 | 4.8 | 9.7 | 0.00 | 0.00 | 0.00 | 69 | 1006.1 |
| 20260509232731 | 30 | 51 | 6.4 | 9.7 | 0.00 | 0.00 | 0.00 | 69 | 1006.1 |
| 20260509232631 | 30 | 48 | 6.4 | 9.7 | 0.00 | 0.00 | 0.00 | 69 | 1005.9 |
| 20260509232531 | 30 | 55 | 6.4 | 9.7 | 0.00 | 0.00 | 0.00 | 68 | 1006.1 |
| 20260509232432 | 30 | 39 | 6.4 | 8.0 | 0.00 | 0.00 | 0.00 | 68 | 1006.1 |
| 20260509232332 | 31 | 39 | 4.8 | 8.0 | 0.00 | 0.00 | 0.00 | 68 | 1006.1 |
| 20260509232230 | 31 | 51 | 4.8 | 9.7 | 0.00 | 0.00 | 0.00 | 67 | 1006.1 |
| 20260509232131 | 31 | 51 | 4.8 | 9.7 | 0.00 | 0.00 | 0.00 | 67 | 1006.1 |
| 20260509232032 | 31 | 51 | 4.8 | 9.7 | 0.00 | 0.00 | 0.00 | 67 | 1006.0 |
| 20260509231931 | 31 | 56 | 4.8 | 9.7 | 0.00 | 0.00 | 0.00 | 66 | 1006.0 |
| 20260509231830 | 31 | 54 | 4.8 | 9.7 | 0.00 | 0.00 | 0.00 | 66 | 1006.0 |
| 20260509231731 | 31 | 55 | 4.8 | 9.7 | 0.00 | 0.00 | 0.00 | 64 | 1006.0 |
| 20260509231631 | 31 | 63 | 4.8 | 9.7 | 0.00 | 0.00 | 0.00 | 65 | 1006.1 |
| 20260509231531 | 31 | 62 | 6.4 | 9.7 | 0.00 | 0.00 | 0.00 | 65 | 1006.1 |
| 20260509231434 | 31 | 63 | 8.0 | 9.7 | 0.00 | 0.00 | 0.00 | 65 | 1006.1 |
| 20260509231332 | 31 | 87 | 6.4 | 9.7 | 0.00 | 0.00 | 0.00 | 65 | 1006.1 |
| 20260509231232 | 31 | 54 | 4.8 | 8.0 | 0.00 | 0.00 | 0.00 | 65 | 1006.1 |
| 20260509231131 | 31 | 78 | 3.2 | 8.0 | 0.00 | 0.00 | 0.00 | 65 | 1006.1 |
| 20260509231032 | 31 | 69 | 4.8 | 8.0 | 0.00 | 0.00 | 0.00 | 65 | 1006.1 |
| 20260509230931 | 31 | 94 | 6.4 | 8.0 | 0.00 | 0.00 | 0.00 | 65 | 1006.1 |
| 20260509230832 | 31 | 76 | 4.8 | 8.0 | 0.00 | 0.00 | 0.00 | 65 | 1006.1 |
| 20260509230733 | 31 | 76 | 6.4 | 8.0 | 0.00 | 0.00 | 0.00 | 65 | 1006.0 |
| 20260509230632 | 31 | 75 | 6.4 | 8.0 | 0.00 | 0.00 | 0.00 | 64 | 1006.0 |
| 20260509230532 | 31 | 80 | 4.8 | 8.0 | 0.00 | 0.00 | 0.00 | 63 | 1006.0 |
| 20260509230432 | 31 | 80 | 6.4 | 8.0 | 0.00 | 0.00 | 0.00 | 63 | 1006.0 |
| 20260509230331 | 31 | 69 | 6.4 | 8.0 | 0.00 | 0.00 | 0.00 | 63 | 1005.9 |
| 20260509230231 | 31 | 86 | 6.4 | 8.0 | 0.00 | 0.00 | 0.00 | 63 | 1005.9 |
| 20260509230131 | 31 | 89 | 4.8 | 8.0 | 0.00 | 0.00 | 0.00 | 62 | 1005.9 |
| 20260509230032 | 31 | 107 | 4.8 | 8.0 | 0.00 | 0.00 | 0.00 | 62 | 1006.0 |
| 20260509225931 | 31 | 96 | 6.4 | 8.0 | 0.00 | 0.00 | 0.00 | 63 | 1005.8 |
| 20260509225832 | 31 | 121 | 6.4 | 8.0 | 0.00 | 0.00 | 0.00 | 62 | 1005.9 |
| 20260509225731 | 32 | 116 | 4.8 | 8.0 | 0.00 | 0.00 | 0.00 | 63 | 1005.8 |
| 20260509225631 | 32 | 96 | 3.2 | 8.0 | 0.00 | 0.00 | 0.00 | 62 | 1005.8 |
| 20260509225531 | 32 | 125 | 3.2 | 6.4 | 0.00 | 0.00 | 0.00 | 63 | 1005.9 |
| 20260509225431 | 31 | 118 | 3.2 | 6.4 | 0.00 | 0.00 | 0.00 | 63 | 1005.8 |
| 20260509225332 | 31 | 149 | 3.2 | 6.4 | 0.00 | 0.00 | 0.00 | 62 | 1005.9 |
| 20260509225231 | 31 | 110 | 1.6 | 4.8 | 0.00 | 0.00 | 0.00 | 62 | 1005.9 |
| 20260509225131 | 32 | 110 | 0.0 | 1.6 | 0.00 | 0.00 | 0.00 | 62 | 1005.9 |
| 20260509225032 | 32 | 104 | 0.0 | 1.6 | 0.00 | 0.00 | 0.00 | 63 | 1005.9 |
| 20260509224931 | 31 | 213 | 0.0 | 1.6 | 0.00 | 0.00 | 0.00 | 62 | 1005.9 |
| 20260509224831 | 31 | 147 | 0.0 | 1.6 | 0.00 | 0.00 | 0.00 | 63 | 1005.9 |
| 20260509224730 | 31 | 147 | 0.0 | 1.6 | 0.00 | 0.00 | 0.00 | 62 | 1005.9 |
| 20260509224632 | 31 | 173 | 0.0 | 3.2 | 0.00 | 0.00 | 0.00 | 62 | 1005.8 |
| 20260509224531 | 31 | 124 | 0.0 | 6.4 | 0.00 | 0.00 | 0.00 | 62 | 1005.9 |
| 20260509224431 | 31 | 124 | 0.0 | 6.4 | 0.00 | 0.00 | 0.00 | 62 | 1005.9 |
| 20260509224331 | 31 | 165 | 0.0 | 6.4 | 0.00 | 0.00 | 0.00 | 61 | 1005.9 |
| 20260509224231 | 31 | 154 | 0.0 | 6.4 | 0.00 | 0.00 | 0.00 | 62 | 1005.9 |
| 20260509224131 | 31 | 137 | 0.0 | 6.4 | 0.00 | 0.00 | 0.00 | 61 | 1005.9 |
| 20260509224032 | 31 | 123 | 0.0 | 6.4 | 0.00 | 0.00 | 0.00 | 61 | 1005.9 |
| 20260509223933 | 31 | 123 | 0.0 | 6.4 | 0.00 | 0.00 | 0.00 | 61 | 1005.9 |
| 20260509223832 | 32 | 120 | 1.6 | 6.4 | 0.00 | 0.00 | 0.00 | 62 | 1005.8 |
| 20260509223732 | 32 | 109 | 3.2 | 6.4 | 0.00 | 0.00 | 0.00 | 61 | 1005.8 |
| 20260509223633 | 32 | 109 | 3.2 | 6.4 | 0.00 | 0.00 | 0.00 | 62 | 1005.9 |
| 20260509223531 | 32 | 87 | 1.6 | 6.4 | 0.00 | 0.00 | 0.00 | 61 | 1005.9 |
| 20260509223431 | 32 | 10 | 1.6 | 3.2 | 0.00 | 0.00 | 0.00 | 60 | 1005.8 |
| 20260509223329 | 32 | 10 | 0.0 | 3.2 | 0.00 | 0.00 | 0.00 | 61 | 1005.8 |
| 20260509223228 | 32 | 10 | 0.0 | 3.2 | 0.00 | 0.00 | 0.00 | 61 | 1005.8 |
| 20260509223130 | 32 | 10 | 0.0 | 3.2 | 0.00 | 0.00 | 0.00 | 61 | 1005.8 |
| 20260509223028 | 32 | 10 | 1.6 | 3.2 | 0.00 | 0.03 | 0.00 | 60 | 1005.8 |
| 20260509222927 | 32 | 10 | 1.6 | 3.2 | 0.00 | 0.03 | 0.00 | 60 | 1005.8 |
| 20260509222827 | 32 | 10 | 1.6 | 3.2 | 0.00 | 0.03 | 0.00 | 60 | 1005.8 |
| 20260509222727 | 32 | 10 | 1.6 | 3.2 | 0.00 | 0.03 | 0.00 | 61 | 1005.8 |
| 20260509222629 | 32 | 10 | 1.6 | 3.2 | 0.00 | 0.03 | 0.00 | 60 | 1005.8 |
| 20260509222529 | 32 | 10 | 1.6 | 4.8 | 0.00 | 0.03 | 0.00 | 60 | 1005.8 |
| 20260509222427 | 32 | 10 | 0.0 | 4.8 | 0.00 | 0.03 | 0.00 | 60 | 1005.9 |
| 20260509222328 | 32 | 10 | 0.0 | 4.8 | 0.00 | 0.03 | 0.00 | 60 | 1005.8 |
| 20260509222227 | 32 | 10 | 0.0 | 6.4 | 0.00 | 0.03 | 0.00 | 60 | 1005.8 |
| 20260509222127 | 32 | 10 | 1.6 | 6.4 | 0.00 | 0.03 | 0.00 | 59 | 1005.8 |
| 20260509222028 | 32 | 10 | 0.0 | 6.4 | 0.00 | 0.03 | 0.00 | 59 | 1005.7 |
| 20260509221929 | 32 | 10 | 0.0 | 6.4 | 0.00 | 0.03 | 0.00 | 58 | 1005.7 |
| 20260509221827 | 32 | 10 | 1.6 | 6.4 | 0.00 | 0.03 | 0.00 | 58 | 1005.7 |
| 20260509221727 | 33 | 10 | 1.6 | 6.4 | 0.00 | 0.03 | 0.00 | 58 | 1005.7 |
| 20260509221628 | 33 | 10 | 1.6 | 9.7 | 0.00 | 0.03 | 0.00 | 58 | 1005.6 |
| 20260509221527 | 32 | 10 | 1.6 | 9.7 | 0.00 | 0.03 | 0.00 | 59 | 1005.7 |
| 20260509221427 | 32 | 10 | 3.2 | 9.7 | 0.00 | 0.03 | 0.00 | 58 | 1005.6 |
| 20260509221328 | 32 | 10 | 3.2 | 9.7 | 0.00 | 0.03 | 0.00 | 59 | 1005.7 |
| 20260509221227 | 32 | 11 | 1.6 | 9.7 | 0.00 | 0.03 | 0.00 | 59 | 1005.7 |
| 20260509221128 | 32 | 38 | 3.2 | 9.7 | 0.00 | 0.03 | 0.00 | 59 | 1005.7 |
| 20260509221028 | 32 | 38 | 3.2 | 9.7 | 0.00 | 0.03 | 0.00 | 59 | 1005.7 |
| 20260509220928 | 32 | 49 | 3.2 | 9.7 | 0.00 | 0.03 | 0.00 | 60 | 1005.7 |